Wetterdaten: Donnerstag, 05.04.2018
Datum Zeit Temp. Aussen Temp. o. S. +5cm Feuchte Auss BlattFeu 1 Luftdruck Regen Sonnenschein Regendauer Solar Windben Empfang
05.04.2018 00:00 10,7 C 8,9 C 7,8 C 86 % 15 lf 999,6 hPa 0,0 l/m 0 min 0 min 0 W/m 20,3 km/h (4 Bft) 95,74 %
05.04.2018 00:02 10,7 C 8,9 C 7,8 C 86 % 15 lf 999,6 hPa 0,0 l/m 0 min 2 min 0 W/m 20,3 km/h (4 Bft) 92,31 %
05.04.2018 00:04 10,6 C 8,9 C 7,8 C 86 % 15 lf 999,6 hPa 0,0 l/m 0 min 0 min 0 W/m 22,5 km/h (4 Bft) 95,74 %
05.04.2018 00:07 10,6 C 8,9 C 7,8 C 86 % 15 lf 999,7 hPa 0,0 l/m 0 min 0 min 0 W/m 22,5 km/h (4 Bft) 95,74 %
05.04.2018 00:08 10,6 C 8,9 C 7,8 C 86 % 15 lf 999,7 hPa 0,0 l/m 0 min 0 min 0 W/m 22,5 km/h (4 Bft) 91,82 %
05.04.2018 00:10 10,6 C 9,4 C 7,8 C 86 % 15 lf 999,7 hPa 0,0 l/m 0 min 0 min 0 W/m 13,5 km/h (3 Bft) 94,29 %
05.04.2018 00:12 10,5 C 9,4 C 7,8 C 86 % 15 lf 999,8 hPa 0,0 l/m 0 min 2 min 0 W/m 29,3 km/h (5 Bft) 95,83 %
05.04.2018 00:14 10,5 C 9,4 C 7,8 C 86 % 14 lf 999,7 hPa 0,0 l/m 0 min 2 min 0 W/m 24,8 km/h (4 Bft) 95,74 %
05.04.2018 00:16 10,5 C 9,4 C 7,8 C 86 % 12 lf 999,7 hPa 0,0 l/m 0 min 2 min 0 W/m 24,8 km/h (4 Bft) 91,49 %
05.04.2018 00:18 10,5 C 9,4 C 7,8 C 86 % 10 lf 999,8 hPa 0,0 l/m 0 min 0 min 0 W/m 22,5 km/h (4 Bft) 95,74 %
05.04.2018 00:20 10,4 C 9,4 C 7,8 C 86 % 5 lf 999,7 hPa 0,0 l/m 0 min 0 min 0 W/m 20,3 km/h (4 Bft) 93,48 %
05.04.2018 00:22 10,4 C 9,4 C 7,8 C 86 % 3 lf 999,8 hPa 0,0 l/m 0 min 0 min 0 W/m 18,0 km/h (3 Bft) 95,83 %
05.04.2018 00:24 10,4 C 10,0 C 7,8 C 86 % 1 lf 999,8 hPa 0,0 l/m 0 min 0 min 0 W/m 18,0 km/h (3 Bft) 97,92 %
05.04.2018 00:26 10,4 C 10,0 C 7,8 C 85 % 0 lf 999,8 hPa 0,0 l/m 0 min 0 min 0 W/m 18,0 km/h (3 Bft) 97,14 %
05.04.2018 00:28 10,4 C 10,0 C 7,8 C 85 % 0 lf 999,8 hPa 0,0 l/m 0 min 0 min 0 W/m 15,8 km/h (3 Bft) 98,25 %
05.04.2018 00:30 10,4 C 10,0 C 7,8 C 85 % 1 lf 999,8 hPa 0,0 l/m 0 min 0 min 0 W/m 20,3 km/h (4 Bft) 100,00 %
05.04.2018 00:32 10,4 C 10,0 C 7,8 C 85 % 0 lf 999,9 hPa 0,0 l/m 0 min 0 min 0 W/m 18,0 km/h (3 Bft) 97,87 %
05.04.2018 00:34 10,4 C 10,0 C 7,8 C 85 % 1 lf 999,8 hPa 0,0 l/m 0 min 2 min 0 W/m 15,8 km/h (3 Bft) 100,00 %
05.04.2018 00:38 10,4 C 10,0 C 7,8 C 85 % 0 lf 999,9 hPa 0,0 l/m 0 min 4 min 0 W/m 31,5 km/h (5 Bft) 97,87 %
05.04.2018 00:40 10,4 C 10,0 C 7,8 C 85 % 0 lf 999,9 hPa 0,0 l/m 0 min 2 min 0 W/m 20,3 km/h (4 Bft) 97,83 %
05.04.2018 00:42 10,4 C 10,0 C 7,8 C 85 % 0 lf 999,9 hPa 0,0 l/m 0 min 2 min 0 W/m 24,8 km/h (4 Bft) 100,00 %
05.04.2018 00:44 10,4 C 10,0 C 7,8 C 85 % 0 lf 999,9 hPa 0,0 l/m 0 min 0 min 0 W/m 24,8 km/h (4 Bft) 100,00 %
05.04.2018 00:46 10,4 C 9,4 C 7,8 C 85 % 2 lf 1000,0 hPa 0,0 l/m 0 min 2 min 0 W/m 15,8 km/h (3 Bft) 97,87 %
05.04.2018 00:48 10,4 C 10,0 C 7,8 C 85 % 0 lf 999,9 hPa 0,0 l/m 0 min 2 min 0 W/m 29,3 km/h (5 Bft) 100,00 %
05.04.2018 00:50 10,4 C 10,0 C 7,8 C 85 % 0 lf 999,9 hPa 0,0 l/m 0 min 2 min 0 W/m 20,3 km/h (4 Bft) 97,92 %
05.04.2018 00:52 10,4 C 10,0 C 7,8 C 85 % 0 lf 1000,0 hPa 0,0 l/m 0 min 2 min 0 W/m 20,3 km/h (4 Bft) 97,87 %
05.04.2018 00:54 10,4 C 10,0 C 7,8 C 85 % 0 lf 1000,0 hPa 0,0 l/m 0 min 0 min 0 W/m 20,3 km/h (4 Bft) 100,00 %
05.04.2018 00:56 10,4 C 10,0 C 7,8 C 85 % 0 lf 1000,0 hPa 0,0 l/m 0 min 0 min 0 W/m 18,0 km/h (3 Bft) 97,83 %
05.04.2018 00:58 10,4 C 10,0 C 7,8 C 85 % 0 lf 1000,1 hPa 0,0 l/m 0 min 2 min 0 W/m 29,3 km/h (5 Bft) 95,83 %
05.04.2018 01:00 10,4 C 10,0 C 7,8 C 85 % 0 lf 1000,0 hPa 0,0 l/m 0 min 0 min 0 W/m 29,3 km/h (5 Bft) 97,87 %
05.04.2018 01:02 10,4 C 10,0 C 7,8 C 85 % 0 lf 1000,1 hPa 0,0 l/m 0 min 0 min 0 W/m 29,3 km/h (5 Bft) 100,00 %
05.04.2018 01:04 10,4 C 10,0 C 7,8 C 85 % 0 lf 1000,0 hPa 0,0 l/m 0 min 0 min 0 W/m 24,8 km/h (4 Bft) 100,00 %
05.04.2018 01:08 10,4 C 10,0 C 7,8 C 86 % 0 lf 1000,1 hPa 0,0 l/m 0 min 0 min 0 W/m 24,8 km/h (4 Bft) 100,00 %
05.04.2018 01:10 10,4 C 10,0 C 7,8 C 86 % 2 lf 1000,0 hPa 0,0 l/m 0 min 2 min 0 W/m 29,3 km/h (5 Bft) 100,00 %
05.04.2018 01:12 10,3 C 9,4 C 7,8 C 86 % 13 lf 1000,1 hPa 0,0 l/m 0 min 2 min 0 W/m 22,5 km/h (4 Bft) 100,00 %
05.04.2018 01:14 10,3 C 9,4 C 7,8 C 86 % 12 lf 1000,1 hPa 0,0 l/m 0 min 2 min 0 W/m 24,8 km/h (4 Bft) 100,00 %
05.04.2018 01:16 10,3 C 9,4 C 7,8 C 86 % 9 lf 1000,1 hPa 0,0 l/m 0 min 0 min 0 W/m 18,0 km/h (3 Bft) 95,00 %
05.04.2018 01:18 10,3 C 9,4 C 7,8 C 86 % 6 lf 1000,0 hPa 0,0 l/m 0 min 2 min 0 W/m 24,8 km/h (4 Bft) 100,00 %
05.04.2018 01:20 10,3 C 9,4 C 7,8 C 86 % 4 lf 1000,1 hPa 0,0 l/m 0 min 2 min 0 W/m 27,0 km/h (4 Bft) 97,87 %
05.04.2018 01:22 10,3 C 9,4 C 7,8 C 86 % 3 lf 1000,1 hPa 0,0 l/m 0 min 2 min 0 W/m 22,5 km/h (4 Bft) 97,92 %
05.04.2018 01:24 10,2 C 9,4 C 7,8 C 87 % 3 lf 1000,0 hPa 0,0 l/m 0 min 2 min 0 W/m 15,8 km/h (3 Bft) 97,87 %
05.04.2018 01:26 10,2 C 9,4 C 7,8 C 87 % 2 lf 1000,0 hPa 0,0 l/m 0 min 0 min 0 W/m 20,3 km/h (4 Bft) 97,87 %
05.04.2018 01:28 10,2 C 9,4 C 7,8 C 87 % 0 lf 1000,0 hPa 0,0 l/m 0 min 0 min 0 W/m 24,8 km/h (4 Bft) 97,87 %
05.04.2018 01:30 10,2 C 9,4 C 7,8 C 87 % 0 lf 1000,1 hPa 0,0 l/m 0 min 0 min 0 W/m 24,8 km/h (4 Bft) 95,74 %
05.04.2018 01:32 10,2 C 9,4 C 7,8 C 87 % 0 lf 1000,1 hPa 0,0 l/m 0 min 0 min 0 W/m 15,8 km/h (3 Bft) 88,57 %
05.04.2018 01:34 10,2 C 10,0 C 7,8 C 87 % 0 lf 1000,1 hPa 0,0 l/m 0 min 0 min 0 W/m 27,0 km/h (4 Bft) 88,46 %
05.04.2018 01:38 10,2 C 10,0 C 7,8 C 87 % 0 lf 1000,1 hPa 0,0 l/m 0 min 4 min 0 W/m 31,5 km/h (5 Bft) 93,68 %
05.04.2018 01:40 10,1 C 10,0 C 7,8 C 87 % 0 lf 1000,1 hPa 0,0 l/m 0 min 2 min 0 W/m 24,8 km/h (4 Bft) 89,36 %
05.04.2018 01:42 10,1 C 10,0 C 7,8 C 87 % 0 lf 1000,2 hPa 0,0 l/m 0 min 0 min 0 W/m 22,5 km/h (4 Bft) 93,62 %
05.04.2018 01:44 10,1 C 10,0 C 7,8 C 87 % 0 lf 1000,2 hPa 0,0 l/m 0 min 0 min 0 W/m 29,3 km/h (5 Bft) 93,62 %
05.04.2018 01:46 10,2 C 10,0 C 7,8 C 87 % 0 lf 1000,3 hPa 0,0 l/m 0 min 0 min 0 W/m 27,0 km/h (4 Bft) 93,62 %
05.04.2018 01:48 10,2 C 10,0 C 7,8 C 87 % 0 lf 1000,3 hPa 0,0 l/m 0 min 0 min 0 W/m 24,8 km/h (4 Bft) 91,49 %
05.04.2018 01:50 10,2 C 10,0 C 7,8 C 87 % 0 lf 1000,2 hPa 0,0 l/m 0 min 0 min 0 W/m 29,3 km/h (5 Bft) 89,36 %
05.04.2018 01:52 10,2 C 10,0 C 7,8 C 87 % 0 lf 1000,3 hPa 0,0 l/m 0 min 0 min 0 W/m 31,5 km/h (5 Bft) 91,49 %
05.04.2018 01:54 10,2 C 10,0 C 7,8 C 87 % 0 lf 1000,3 hPa 0,0 l/m 0 min 0 min 0 W/m 24,8 km/h (4 Bft) 93,48 %
05.04.2018 01:56 10,2 C 10,0 C 7,8 C 86 % 0 lf 1000,4 hPa 0,0 l/m 0 min 0 min 0 W/m 15,8 km/h (3 Bft) 91,67 %
05.04.2018 01:58 10,2 C 10,0 C 7,8 C 86 % 0 lf 1000,4 hPa 0,0 l/m 0 min 0 min 0 W/m 29,3 km/h (5 Bft) 95,74 %
05.04.2018 02:00 10,2 C 10,0 C 7,8 C 86 % 0 lf 1000,4 hPa 0,0 l/m 0 min 0 min 0 W/m 24,8 km/h (4 Bft) 93,62 %
05.04.2018 02:02 10,2 C 10,0 C 7,8 C 86 % 0 lf 1000,4 hPa 0,0 l/m 0 min 0 min 0 W/m 27,0 km/h (4 Bft) 91,84 %
05.04.2018 02:04 10,2 C 10,0 C 7,8 C 86 % 0 lf 1000,4 hPa 0,0 l/m 0 min 0 min 0 W/m 18,0 km/h (3 Bft) 93,62 %
05.04.2018 02:08 10,2 C 10,0 C 7,8 C 86 % 0 lf 1000,4 hPa 0,0 l/m 0 min 0 min 0 W/m 27,0 km/h (4 Bft) 92,77 %
05.04.2018 02:10 10,2 C 10,0 C 7,8 C 86 % 0 lf 1000,4 hPa 0,0 l/m 0 min 0 min 0 W/m 22,5 km/h (4 Bft) 93,62 %
05.04.2018 02:12 10,2 C 10,0 C 7,8 C 86 % 0 lf 1000,4 hPa 0,0 l/m 0 min 0 min 0 W/m 22,5 km/h (4 Bft) 95,74 %
05.04.2018 02:14 10,2 C 10,0 C 7,8 C 86 % 0 lf 1000,5 hPa 0,0 l/m 0 min 0 min 0 W/m 27,0 km/h (4 Bft) 95,74 %
05.04.2018 02:16 10,2 C 10,0 C 7,8 C 86 % 0 lf 1000,5 hPa 0,0 l/m 0 min 0 min 0 W/m 18,0 km/h (3 Bft) 89,58 %
05.04.2018 02:18 10,2 C 10,0 C 7,8 C 86 % 0 lf 1000,5 hPa 0,0 l/m 0 min 0 min 0 W/m 20,3 km/h (4 Bft) 91,49 %
05.04.2018 02:20 10,2 C 10,0 C 7,8 C 86 % 0 lf 1000,6 hPa 0,0 l/m 0 min 0 min 0 W/m 22,5 km/h (4 Bft) 93,22 %
05.04.2018 02:22 10,2 C 10,0 C 7,8 C 86 % 0 lf 1000,6 hPa 0,0 l/m 0 min 0 min 0 W/m 22,5 km/h (4 Bft) 97,14 %
05.04.2018 02:24 10,2 C 10,0 C 7,8 C 86 % 0 lf 1000,6 hPa 0,0 l/m 0 min 0 min 0 W/m 22,5 km/h (4 Bft) 89,36 %
05.04.2018 02:26 10,2 C 10,0 C 7,8 C 86 % 0 lf 1000,6 hPa 0,0 l/m 0 min 0 min 0 W/m 24,8 km/h (4 Bft) 95,65 %
05.04.2018 02:28 10,2 C 10,0 C 7,8 C 86 % 0 lf 1000,6 hPa 0,0 l/m 0 min 0 min 0 W/m 20,3 km/h (4 Bft) 97,87 %
05.04.2018 02:30 10,2 C 10,0 C 8,3 C 86 % 0 lf 1000,6 hPa 0,0 l/m 0 min 0 min 0 W/m 29,3 km/h (5 Bft) 97,87 %
05.04.2018 02:32 10,2 C 10,0 C 8,3 C 86 % 0 lf 1000,7 hPa 0,0 l/m 0 min 0 min 0 W/m 24,8 km/h (4 Bft) 97,56 %
05.04.2018 02:34 10,2 C 10,0 C 8,3 C 86 % 0 lf 1000,6 hPa 0,0 l/m 0 min 0 min 0 W/m 22,5 km/h (4 Bft) 97,87 %
05.04.2018 02:38 10,1 C 10,0 C 8,3 C 86 % 0 lf 1000,7 hPa 0,0 l/m 0 min 0 min 0 W/m 20,3 km/h (4 Bft) 95,79 %
05.04.2018 02:40 10,1 C 10,0 C 8,3 C 86 % 0 lf 1000,7 hPa 0,0 l/m 0 min 0 min 0 W/m 27,0 km/h (4 Bft) 97,87 %
05.04.2018 02:42 10,1 C 10,0 C 8,3 C 86 % 0 lf 1000,7 hPa 0,0 l/m 0 min 0 min 0 W/m 15,8 km/h (3 Bft) 97,87 %
05.04.2018 02:44 10,1 C 10,0 C 8,3 C 86 % 0 lf 1000,7 hPa 0,0 l/m 0 min 0 min 0 W/m 22,5 km/h (4 Bft) 95,74 %
05.04.2018 02:46 10,1 C 10,0 C 8,3 C 86 % 0 lf 1000,7 hPa 0,0 l/m 0 min 0 min 0 W/m 27,0 km/h (4 Bft) 97,96 %
05.04.2018 02:48 10,1 C 10,0 C 8,3 C 86 % 0 lf 1000,7 hPa 0,0 l/m 0 min 0 min 0 W/m 20,3 km/h (4 Bft) 97,87 %
05.04.2018 02:50 10,1 C 10,0 C 8,3 C 86 % 0 lf 1000,7 hPa 0,0 l/m 0 min 0 min 0 W/m 22,5 km/h (4 Bft) 98,28 %
05.04.2018 02:52 10,1 C 10,0 C 8,3 C 86 % 0 lf 1000,7 hPa 0,0 l/m 0 min 0 min 0 W/m 18,0 km/h (3 Bft) 94,44 %
05.04.2018 02:54 10,1 C 10,0 C 8,3 C 86 % 0 lf 1000,7 hPa 0,0 l/m 0 min 0 min 0 W/m 20,3 km/h (4 Bft) 97,83 %
05.04.2018 02:56 10,1 C 10,0 C 8,3 C 86 % 0 lf 1000,8 hPa 0,0 l/m 0 min 0 min 0 W/m 22,5 km/h (4 Bft) 95,92 %
05.04.2018 02:58 10,1 C 10,0 C 8,9 C 86 % 0 lf 1000,7 hPa 0,0 l/m 0 min 0 min 0 W/m 20,3 km/h (4 Bft) 95,74 %
05.04.2018 03:00 10,1 C 10,0 C 8,3 C 86 % 0 lf 1000,8 hPa 0,0 l/m 0 min 0 min 0 W/m 15,8 km/h (3 Bft) 95,74 %
05.04.2018 03:02 10,1 C 10,0 C 8,3 C 86 % 0 lf 1000,7 hPa 0,0 l/m 0 min 0 min 0 W/m 24,8 km/h (4 Bft) 95,65 %
05.04.2018 03:04 10,1 C 10,0 C 8,9 C 86 % 0 lf 1000,7 hPa 0,0 l/m 0 min 0 min 0 W/m 20,3 km/h (4 Bft) 97,87 %
05.04.2018 03:08 10,1 C 10,0 C 8,9 C 86 % 0 lf 1000,8 hPa 0,0 l/m 0 min 0 min 0 W/m 24,8 km/h (4 Bft) 96,59 %
05.04.2018 03:10 10,1 C 10,0 C 8,3 C 85 % 0 lf 1000,8 hPa 0,0 l/m 0 min 0 min 0 W/m 18,0 km/h (3 Bft) 97,87 %
05.04.2018 03:12 10,1 C 10,0 C 8,3 C 85 % 0 lf 1000,8 hPa 0,0 l/m 0 min 0 min 0 W/m 24,8 km/h (4 Bft) 97,92 %
05.04.2018 03:14 10,1 C 10,0 C 8,9 C 85 % 0 lf 1000,9 hPa 0,0 l/m 0 min 0 min 0 W/m 22,5 km/h (4 Bft) 95,74 %
05.04.2018 03:16 10,1 C 10,0 C 8,9 C 85 % 0 lf 1000,8 hPa 0,0 l/m 0 min 0 min 0 W/m 18,0 km/h (3 Bft) 95,83 %
05.04.2018 03:18 10,1 C 10,0 C 8,3 C 85 % 0 lf 1000,8 hPa 0,0 l/m 0 min 0 min 0 W/m 22,5 km/h (4 Bft) 97,83 %
05.04.2018 03:20 10,1 C 10,0 C 8,9 C 85 % 0 lf 1000,9 hPa 0,0 l/m 0 min 2 min 0 W/m 24,8 km/h (4 Bft) 96,67 %
05.04.2018 03:22 10,1 C 10,0 C 8,9 C 85 % 0 lf 1000,9 hPa 0,0 l/m 0 min 2 min 0 W/m 20,3 km/h (4 Bft) 97,14 %
05.04.2018 03:24 10,1 C 10,0 C 8,9 C 85 % 0 lf 1000,9 hPa 0,0 l/m 0 min 0 min 0 W/m 24,8 km/h (4 Bft) 97,87 %
05.04.2018 03:26 10,1 C 10,0 C 8,9 C 85 % 0 lf 1000,9 hPa 0,0 l/m 0 min 0 min 0 W/m 27,0 km/h (4 Bft) 97,87 %
05.04.2018 03:28 10,1 C 10,0 C 8,3 C 85 % 2 lf 1000,9 hPa 0,0 l/m 0 min 2 min 0 W/m 15,8 km/h (3 Bft) 100,00 %
05.04.2018 03:30 10,1 C 9,4 C 8,3 C 85 % 2 lf 1000,9 hPa 0,0 l/m 0 min 2 min 0 W/m 15,8 km/h (3 Bft) 95,65 %
05.04.2018 03:32 10,1 C 9,4 C 7,8 C 85 % 3 lf 1001,0 hPa 0,0 l/m 0 min 2 min 0 W/m 20,3 km/h (4 Bft) 97,96 %
05.04.2018 03:34 10,1 C 9,4 C 7,8 C 86 % 2 lf 1001,0 hPa 0,0 l/m 0 min 0 min 0 W/m 13,5 km/h (3 Bft) 100,00 %
05.04.2018 03:38 10,1 C 9,4 C 7,8 C 86 % 0 lf 1001,0 hPa 0,0 l/m 0 min 4 min 0 W/m 38,3 km/h (5 Bft) 100,00 %
05.04.2018 03:40 10,1 C 9,4 C 7,8 C 86 % 0 lf 1000,9 hPa 0,0 l/m 0 min 0 min 0 W/m 31,5 km/h (5 Bft) 100,00 %
05.04.2018 03:42 10,0 C 9,4 C 7,8 C 86 % 4 lf 1001,0 hPa 0,0 l/m 0 min 2 min 0 W/m 22,5 km/h (4 Bft) 95,74 %
05.04.2018 03:44 10,0 C 9,4 C 7,8 C 87 % 2 lf 1001,1 hPa 0,0 l/m 0 min 0 min 0 W/m 22,5 km/h (4 Bft) 100,00 %
05.04.2018 03:46 10,0 C 9,4 C 7,8 C 87 % 1 lf 1001,1 hPa 0,0 l/m 0 min 2 min 0 W/m 27,0 km/h (4 Bft) 100,00 %
05.04.2018 03:48 10,0 C 9,4 C 7,8 C 87 % 0 lf 1001,0 hPa 0,0 l/m 0 min 0 min 0 W/m 31,5 km/h (5 Bft) 95,65 %
05.04.2018 03:50 10,0 C 9,4 C 7,8 C 87 % 0 lf 1001,0 hPa 0,0 l/m 0 min 0 min 0 W/m 24,8 km/h (4 Bft) 98,31 %
05.04.2018 03:52 9,9 C 9,4 C 7,8 C 87 % 0 lf 1001,0 hPa 0,0 l/m 0 min 0 min 0 W/m 24,8 km/h (4 Bft) 97,14 %
05.04.2018 03:54 9,9 C 9,4 C 7,8 C 87 % 2 lf 1001,0 hPa 0,0 l/m 0 min 0 min 0 W/m 27,0 km/h (4 Bft) 97,87 %
05.04.2018 03:56 9,9 C 9,4 C 7,8 C 88 % 1 lf 1001,0 hPa 0,0 l/m 0 min 0 min 0 W/m 18,0 km/h (3 Bft) 97,87 %
05.04.2018 03:58 9,9 C 8,9 C 7,8 C 88 % 0 lf 1001,1 hPa 0,0 l/m 0 min 0 min 0 W/m 15,8 km/h (3 Bft) 100,00 %
05.04.2018 04:00 9,8 C 8,9 C 7,2 C 88 % 0 lf 1001,0 hPa 0,0 l/m 0 min 0 min 0 W/m 20,3 km/h (4 Bft) 95,65 %
05.04.2018 04:05 9,8 C 8,9 C 7,2 C 88 % 0 lf 1001,1 hPa 0,0 l/m 0 min 0 min 0 W/m 22,5 km/h (4 Bft) 96,43 %
05.04.2018 04:06 9,7 C 8,9 C 7,2 C 88 % 0 lf 1001,1 hPa 0,0 l/m 0 min 0 min 0 W/m 11,3 km/h (2 Bft) 100,00 %
05.04.2018 04:08 9,7 C 9,4 C 7,2 C 88 % 0 lf 1001,1 hPa 0,0 l/m 0 min 0 min 0 W/m 20,3 km/h (4 Bft) 95,74 %
05.04.2018 04:10 9,7 C 9,4 C 7,2 C 88 % 0 lf 1001,1 hPa 0,0 l/m 0 min 0 min 0 W/m 9,0 km/h (2 Bft) 93,62 %
05.04.2018 04:12 9,7 C 9,4 C 7,2 C 88 % 0 lf 1001,2 hPa 0,0 l/m 0 min 0 min 0 W/m 20,3 km/h (4 Bft) 95,65 %
05.04.2018 04:14 9,7 C 9,4 C 7,2 C 88 % 0 lf 1001,1 hPa 0,0 l/m 0 min 0 min 0 W/m 20,3 km/h (4 Bft) 95,74 %
05.04.2018 04:16 9,7 C 9,4 C 7,2 C 89 % 0 lf 1001,2 hPa 0,0 l/m 0 min 0 min 0 W/m 27,0 km/h (4 Bft) 93,62 %
05.04.2018 04:18 9,7 C 9,4 C 7,2 C 89 % 0 lf 1001,2 hPa 0,0 l/m 0 min 0 min 0 W/m 22,5 km/h (4 Bft) 95,74 %
05.04.2018 04:20 9,7 C 9,4 C 7,2 C 89 % 0 lf 1001,2 hPa 0,0 l/m 0 min 0 min 0 W/m 15,8 km/h (3 Bft) 97,87 %
05.04.2018 04:22 9,6 C 9,4 C 7,2 C 89 % 0 lf 1001,2 hPa 0,0 l/m 0 min 0 min 0 W/m 13,5 km/h (3 Bft) 97,87 %
05.04.2018 04:24 9,6 C 9,4 C 7,2 C 89 % 0 lf 1001,3 hPa 0,0 l/m 0 min 0 min 0 W/m 22,5 km/h (4 Bft) 97,83 %
05.04.2018 04:26 9,6 C 9,4 C 7,2 C 89 % 0 lf 1001,2 hPa 0,0 l/m 0 min 0 min 0 W/m 27,0 km/h (4 Bft) 91,49 %
05.04.2018 04:28 9,6 C 9,4 C 7,2 C 89 % 0 lf 1001,3 hPa 0,0 l/m 0 min 0 min 0 W/m 31,5 km/h (5 Bft) 95,74 %
05.04.2018 04:30 9,6 C 9,4 C 7,2 C 89 % 0 lf 1001,3 hPa 0,0 l/m 0 min 0 min 0 W/m 24,8 km/h (4 Bft) 97,87 %
05.04.2018 04:32 9,6 C 9,4 C 7,2 C 89 % 0 lf 1001,2 hPa 0,0 l/m 0 min 0 min 0 W/m 20,3 km/h (4 Bft) 97,87 %
05.04.2018 04:34 9,6 C 9,4 C 7,2 C 89 % 0 lf 1001,3 hPa 0,0 l/m 0 min 0 min 0 W/m 13,5 km/h (3 Bft) 97,87 %
05.04.2018 04:38 9,7 C 9,4 C 7,8 C 89 % 0 lf 1001,3 hPa 0,0 l/m 0 min 0 min 0 W/m 22,5 km/h (4 Bft) 96,77 %
05.04.2018 04:40 9,7 C 9,4 C 8,3 C 89 % 0 lf 1001,3 hPa 0,0 l/m 0 min 0 min 0 W/m 24,8 km/h (4 Bft) 93,62 %
05.04.2018 04:42 9,7 C 9,4 C 8,3 C 89 % 0 lf 1001,3 hPa 0,0 l/m 0 min 0 min 0 W/m 22,5 km/h (4 Bft) 97,87 %
05.04.2018 04:44 9,7 C 9,4 C 8,3 C 89 % 0 lf 1001,4 hPa 0,0 l/m 0 min 0 min 0 W/m 27,0 km/h (4 Bft) 95,74 %
05.04.2018 04:46 9,7 C 9,4 C 8,3 C 89 % 0 lf 1001,4 hPa 0,0 l/m 0 min 0 min 0 W/m 27,0 km/h (4 Bft) 100,00 %
05.04.2018 04:48 9,7 C 9,4 C 8,3 C 89 % 0 lf 1001,4 hPa 0,0 l/m 0 min 0 min 0 W/m 27,0 km/h (4 Bft) 97,87 %
05.04.2018 04:50 9,7 C 9,4 C 8,3 C 89 % 0 lf 1001,4 hPa 0,0 l/m 0 min 0 min 0 W/m 20,3 km/h (4 Bft) 100,00 %
05.04.2018 04:52 9,7 C 9,4 C 8,3 C 89 % 0 lf 1001,4 hPa 0,0 l/m 0 min 0 min 0 W/m 24,8 km/h (4 Bft) 100,00 %
05.04.2018 04:54 9,7 C 9,4 C 8,3 C 89 % 0 lf 1001,4 hPa 0,0 l/m 0 min 0 min 0 W/m 22,5 km/h (4 Bft) 100,00 %
05.04.2018 04:56 9,8 C 9,4 C 8,3 C 89 % 0 lf 1001,4 hPa 0,0 l/m 0 min 0 min 0 W/m 18,0 km/h (3 Bft) 100,00 %
05.04.2018 04:58 9,8 C 9,4 C 8,3 C 89 % 0 lf 1001,4 hPa 0,0 l/m 0 min 0 min 0 W/m 20,3 km/h (4 Bft) 95,65 %
05.04.2018 05:00 9,8 C 9,4 C 8,3 C 89 % 0 lf 1001,5 hPa 0,0 l/m 0 min 0 min 0 W/m 18,0 km/h (3 Bft) 93,62 %
05.04.2018 05:02 9,8 C 9,4 C 8,3 C 89 % 0 lf 1001,4 hPa 0,0 l/m 0 min 0 min 0 W/m 22,5 km/h (4 Bft) 95,74 %
05.04.2018 05:04 9,8 C 9,4 C 8,3 C 89 % 0 lf 1001,5 hPa 0,0 l/m 0 min 0 min 0 W/m 27,0 km/h (4 Bft) 97,87 %
05.04.2018 05:08 9,8 C 9,4 C 8,3 C 89 % 0 lf 1001,5 hPa 0,0 l/m 0 min 0 min 0 W/m 24,8 km/h (4 Bft) 95,74 %
05.04.2018 05:10 9,8 C 9,4 C 8,3 C 89 % 0 lf 1001,5 hPa 0,0 l/m 0 min 0 min 0 W/m 31,5 km/h (5 Bft) 97,83 %
05.04.2018 05:12 9,8 C 9,4 C 8,3 C 89 % 0 lf 1001,5 hPa 0,0 l/m 0 min 0 min 0 W/m 18,0 km/h (3 Bft) 97,87 %
05.04.2018 05:14 9,8 C 9,4 C 8,3 C 88 % 2 lf 1001,5 hPa 0,0 l/m 0 min 2 min 0 W/m 20,3 km/h (4 Bft) 93,62 %
05.04.2018 05:16 9,8 C 9,4 C 7,8 C 88 % 2 lf 1001,6 hPa 0,0 l/m 0 min 2 min 0 W/m 13,5 km/h (3 Bft) 95,74 %
05.04.2018 05:18 9,8 C 9,4 C 7,8 C 88 % 2 lf 1001,6 hPa 0,0 l/m 0 min 0 min 0 W/m 29,3 km/h (5 Bft) 97,87 %
05.04.2018 05:20 9,8 C 9,4 C 7,8 C 88 % 0 lf 1001,7 hPa 0,0 l/m 0 min 0 min 0 W/m 24,8 km/h (4 Bft) 94,83 %
05.04.2018 05:22 9,8 C 9,4 C 7,8 C 88 % 0 lf 1001,7 hPa 0,0 l/m 0 min 0 min 0 W/m 24,8 km/h (4 Bft) 94,29 %
05.04.2018 05:24 9,9 C 9,4 C 7,8 C 88 % 0 lf 1001,6 hPa 0,0 l/m 0 min 0 min 0 W/m 24,8 km/h (4 Bft) 97,87 %
05.04.2018 05:26 9,9 C 9,4 C 7,8 C 88 % 2 lf 1001,7 hPa 0,0 l/m 0 min 0 min 0 W/m 18,0 km/h (3 Bft) 97,87 %
05.04.2018 05:28 9,8 C 9,4 C 7,8 C 88 % 0 lf 1001,7 hPa 0,0 l/m 0 min 0 min 0 W/m 27,0 km/h (4 Bft) 95,74 %
05.04.2018 05:30 9,9 C 9,4 C 8,3 C 88 % 0 lf 1001,7 hPa 0,0 l/m 0 min 0 min 0 W/m 36,0 km/h (5 Bft) 95,74 %
05.04.2018 05:32 9,9 C 9,4 C 8,3 C 88 % 0 lf 1001,8 hPa 0,0 l/m 0 min 0 min 0 W/m 22,5 km/h (4 Bft) 97,87 %
05.04.2018 05:34 9,9 C 9,4 C 8,3 C 88 % 0 lf 1001,8 hPa 0,0 l/m 0 min 0 min 0 W/m 24,8 km/h (4 Bft) 97,83 %
05.04.2018 05:35 9,9 C 9,4 C 8,3 C 88 % 0 lf 1001,9 hPa 0,0 l/m 0 min 0 min 0 W/m 33,8 km/h (5 Bft) 98,25 %
05.04.2018 05:40 9,9 C 9,4 C 8,3 C 88 % 0 lf 1001,9 hPa 0,0 l/m 0 min 0 min 0 W/m 24,8 km/h (4 Bft) 97,14 %
05.04.2018 05:42 9,9 C 9,4 C 8,3 C 88 % 0 lf 1001,9 hPa 0,0 l/m 0 min 0 min 0 W/m 29,3 km/h (5 Bft) 97,87 %
05.04.2018 05:44 9,9 C 9,4 C 8,3 C 88 % 0 lf 1001,9 hPa 0,0 l/m 0 min 0 min 0 W/m 27,0 km/h (4 Bft) 94,29 %
05.04.2018 05:49 9,9 C 10,0 C 8,9 C 88 % 0 lf 1001,9 hPa 0,0 l/m 0 min 0 min 0 W/m 36,0 km/h (5 Bft) 92,98 %
05.04.2018 05:50 9,9 C 10,0 C 8,9 C 88 % 0 lf 1001,9 hPa 0,0 l/m 0 min 0 min 0 W/m 22,5 km/h (4 Bft) 100,00 %
05.04.2018 05:52 9,9 C 10,0 C 8,3 C 88 % 0 lf 1002,0 hPa 0,0 l/m 0 min 0 min 0 W/m 22,5 km/h (4 Bft) 97,87 %
05.04.2018 05:57 9,9 C 10,0 C 8,3 C 87 % 0 lf 1001,9 hPa 0,0 l/m 0 min 0 min 0 W/m 24,8 km/h (4 Bft) 98,33 %
05.04.2018 05:58 10,0 C 10,0 C 8,3 C 87 % 0 lf 1001,9 hPa 0,0 l/m 0 min 0 min 0 W/m 24,8 km/h (4 Bft) 95,65 %
05.04.2018 06:00 10,0 C 10,0 C 8,3 C 87 % 0 lf 1001,9 hPa 0,0 l/m 0 min 0 min 0 W/m 31,5 km/h (5 Bft) 97,87 %
05.04.2018 06:02 10,0 C 10,0 C 8,3 C 87 % 0 lf 1002,0 hPa 0,0 l/m 0 min 0 min 0 W/m 29,3 km/h (5 Bft) 95,74 %
05.04.2018 06:04 10,0 C 10,0 C 8,3 C 87 % 1 lf 1002,0 hPa 0,0 l/m 0 min 2 min 0 W/m 24,8 km/h (4 Bft) 95,74 %
05.04.2018 06:08 10,0 C 10,0 C 8,9 C 87 % 0 lf 1002,1 hPa 0,0 l/m 0 min 0 min 0 W/m 29,3 km/h (5 Bft) 93,90 %
05.04.2018 06:10 10,0 C 10,0 C 8,9 C 87 % 0 lf 1002,1 hPa 0,0 l/m 0 min 0 min 0 W/m 33,8 km/h (5 Bft) 93,85 %
05.04.2018 06:12 10,1 C 10,0 C 8,9 C 87 % 0 lf 1002,2 hPa 0,0 l/m 0 min 0 min 0 W/m 22,5 km/h (4 Bft) 97,14 %
05.04.2018 06:14 10,1 C 10,0 C 8,3 C 87 % 14 lf 1002,2 hPa 0,0 l/m 0 min 2 min 0 W/m 29,3 km/h (5 Bft) 93,62 %
05.04.2018 06:16 10,1 C 9,4 C 7,8 C 87 % 14 lf 1002,2 hPa 0,0 l/m 0 min 2 min 0 W/m 31,5 km/h (5 Bft) 93,62 %
05.04.2018 06:18 10,1 C 9,4 C 7,8 C 87 % 12 lf 1002,2 hPa 0,0 l/m 0 min 2 min 0 W/m 24,8 km/h (4 Bft) 86,96 %
05.04.2018 06:20 10,1 C 9,4 C 7,8 C 87 % 5 lf 1002,2 hPa 0,0 l/m 0 min 0 min 0 W/m 24,8 km/h (4 Bft) 94,92 %
05.04.2018 06:22 10,0 C 9,4 C 8,3 C 87 % 4 lf 1002,2 hPa 0,0 l/m 0 min 2 min 0 W/m 29,3 km/h (5 Bft) 94,29 %
05.04.2018 06:24 10,0 C 9,4 C 8,3 C 87 % 1 lf 1002,3 hPa 0,0 l/m 0 min 0 min 0 W/m 31,5 km/h (5 Bft) 100,00 %
05.04.2018 06:26 10,0 C 10,0 C 8,3 C 87 % 0 lf 1002,3 hPa 0,0 l/m 0 min 0 min 0 W/m 29,3 km/h (5 Bft) 100,00 %
05.04.2018 06:28 10,0 C 10,0 C 8,3 C 87 % 0 lf 1002,4 hPa 0,0 l/m 0 min 2 min 0 W/m 33,8 km/h (5 Bft) 100,00 %
05.04.2018 06:30 10,0 C 10,0 C 8,3 C 87 % 0 lf 1002,3 hPa 0,0 l/m 0 min 2 min 0 W/m 29,3 km/h (5 Bft) 100,00 %
05.04.2018 06:32 10,0 C 10,0 C 8,3 C 87 % 0 lf 1002,4 hPa 0,0 l/m 0 min 0 min 0 W/m 24,8 km/h (4 Bft) 100,00 %
05.04.2018 06:34 10,0 C 10,0 C 8,3 C 87 % 0 lf 1002,4 hPa 0,0 l/m 0 min 0 min 0 W/m 24,8 km/h (4 Bft) 100,00 %
05.04.2018 06:38 10,0 C 10,0 C 8,3 C 87 % 0 lf 1002,4 hPa 0,0 l/m 0 min 0 min 0 W/m 27,0 km/h (4 Bft) 97,87 %
05.04.2018 06:40 10,0 C 9,4 C 8,3 C 86 % 0 lf 1002,4 hPa 0,0 l/m 0 min 0 min 0 W/m 33,8 km/h (5 Bft) 97,87 %
05.04.2018 06:42 10,0 C 10,0 C 8,3 C 86 % 0 lf 1002,4 hPa 0,0 l/m 0 min 0 min 0 W/m 31,5 km/h (5 Bft) 97,83 %
05.04.2018 06:44 10,0 C 9,4 C 8,3 C 86 % 0 lf 1002,4 hPa 0,0 l/m 0 min 0 min 0 W/m 24,8 km/h (4 Bft) 97,87 %
05.04.2018 06:46 10,0 C 9,4 C 8,3 C 86 % 0 lf 1002,4 hPa 0,0 l/m 0 min 0 min 0 W/m 31,5 km/h (5 Bft) 97,87 %
05.04.2018 06:48 10,0 C 9,4 C 8,3 C 86 % 0 lf 1002,5 hPa 0,0 l/m 0 min 0 min 0 W/m 27,0 km/h (4 Bft) 93,62 %
05.04.2018 06:50 10,0 C 9,4 C 8,3 C 86 % 0 lf 1002,5 hPa 0,0 l/m 0 min 0 min 0 W/m 29,3 km/h (5 Bft) 98,28 %
05.04.2018 06:52 10,0 C 9,4 C 8,3 C 86 % 0 lf 1002,6 hPa 0,0 l/m 0 min 0 min 0 W/m 29,3 km/h (5 Bft) 91,43 %
05.04.2018 06:54 9,9 C 9,4 C 8,3 C 86 % 0 lf 1002,6 hPa 0,0 l/m 0 min 0 min 0 W/m 29,3 km/h (5 Bft) 95,74 %
05.04.2018 06:56 9,9 C 9,4 C 8,3 C 86 % 0 lf 1002,6 hPa 0,0 l/m 0 min 0 min 0 W/m 29,3 km/h (5 Bft) 97,87 %
05.04.2018 06:58 9,9 C 9,4 C 8,3 C 86 % 0 lf 1002,7 hPa 0,0 l/m 0 min 0 min 4 W/m 38,3 km/h (5 Bft) 95,74 %
05.04.2018 07:00 9,9 C 9,4 C 8,3 C 86 % 0 lf 1002,7 hPa 0,0 l/m 0 min 0 min 5 W/m 22,5 km/h (4 Bft) 97,87 %
05.04.2018 07:02 9,9 C 9,4 C 8,3 C 86 % 0 lf 1002,8 hPa 0,0 l/m 0 min 0 min 3 W/m 38,3 km/h (5 Bft) 97,87 %
05.04.2018 07:04 9,9 C 9,4 C 8,3 C 86 % 0 lf 1002,8 hPa 0,0 l/m 0 min 0 min 5 W/m 33,8 km/h (5 Bft) 97,83 %
05.04.2018 07:08 9,9 C 10,0 C 8,3 C 86 % 0 lf 1002,8 hPa 0,0 l/m 0 min 0 min 5 W/m 31,5 km/h (5 Bft) 96,81 %
05.04.2018 07:10 9,9 C 10,0 C 8,3 C 86 % 0 lf 1002,8 hPa 0,0 l/m 0 min 0 min 5 W/m 27,0 km/h (4 Bft) 93,62 %
05.04.2018 07:12 9,9 C 10,0 C 8,3 C 86 % 0 lf 1002,9 hPa 0,0 l/m 0 min 0 min 5 W/m 38,3 km/h (5 Bft) 97,87 %
05.04.2018 07:14 9,9 C 10,0 C 8,9 C 86 % 0 lf 1002,9 hPa 0,0 l/m 0 min 0 min 7 W/m 42,8 km/h (6 Bft) 97,87 %
05.04.2018 07:16 9,9 C 10,0 C 8,9 C 86 % 0 lf 1003,0 hPa 0,0 l/m 0 min 0 min 8 W/m 29,3 km/h (5 Bft) 97,56 %
05.04.2018 07:18 10,0 C 10,0 C 8,3 C 86 % 0 lf 1002,9 hPa 0,0 l/m 0 min 0 min 9 W/m 27,0 km/h (4 Bft) 97,87 %
05.04.2018 07:20 10,0 C 10,0 C 8,3 C 86 % 0 lf 1003,1 hPa 0,0 l/m 0 min 2 min 6 W/m 27,0 km/h (4 Bft) 96,55 %
05.04.2018 07:22 10,0 C 9,4 C 8,3 C 86 % 9 lf 1003,0 hPa 0,0 l/m 0 min 2 min 7 W/m 42,8 km/h (6 Bft) 100,00 %
05.04.2018 07:24 10,0 C 9,4 C 7,8 C 87 % 15 lf 1003,0 hPa 0,0 l/m 0 min 2 min 9 W/m 33,8 km/h (5 Bft) 97,83 %
05.04.2018 07:26 9,9 C 9,4 C 7,8 C 87 % 15 lf 1003,2 hPa 0,0 l/m 0 min 2 min 9 W/m 40,6 km/h (6 Bft) 97,87 %
05.04.2018 07:28 9,9 C 9,4 C 7,8 C 87 % 15 lf 1003,0 hPa 0,0 l/m 0 min 2 min 11 W/m 27,0 km/h (4 Bft) 100,00 %
05.04.2018 07:30 9,9 C 9,4 C 7,8 C 87 % 15 lf 1003,1 hPa 0,0 l/m 0 min 2 min 11 W/m 31,5 km/h (5 Bft) 97,87 %
05.04.2018 07:32 9,8 C 9,4 C 7,8 C 87 % 15 lf 1003,2 hPa 0,0 l/m 0 min 2 min 12 W/m 45,1 km/h (6 Bft) 100,00 %
05.04.2018 07:34 9,8 C 9,4 C 7,8 C 88 % 13 lf 1003,1 hPa 0,0 l/m 0 min 2 min 15 W/m 47,3 km/h (6 Bft) 100,00 %
05.04.2018 07:38 9,7 C 9,4 C 7,8 C 87 % 2 lf 1003,2 hPa 0,0 l/m 0 min 4 min 20 W/m 42,8 km/h (6 Bft) 100,00 %
05.04.2018 07:40 9,6 C 9,4 C 7,8 C 88 % 0 lf 1003,2 hPa 0,0 l/m 0 min 2 min 24 W/m 31,5 km/h (5 Bft) 100,00 %
05.04.2018 07:42 9,6 C 9,4 C 7,8 C 88 % 0 lf 1003,2 hPa 0,0 l/m 0 min 2 min 27 W/m 31,5 km/h (5 Bft) 100,00 %
05.04.2018 07:44 9,6 C 9,4 C 7,8 C 88 % 0 lf 1003,3 hPa 0,0 l/m 0 min 2 min 30 W/m 42,8 km/h (6 Bft) 97,87 %
05.04.2018 07:46 9,6 C 9,4 C 7,8 C 88 % 0 lf 1003,3 hPa 0,0 l/m 0 min 2 min 27 W/m 29,3 km/h (5 Bft) 97,83 %
05.04.2018 07:48 9,5 C 9,4 C 7,8 C 88 % 0 lf 1003,4 hPa 0,0 l/m 0 min 2 min 26 W/m 31,5 km/h (5 Bft) 97,87 %
05.04.2018 07:50 9,5 C 9,4 C 7,8 C 88 % 0 lf 1003,5 hPa 0,0 l/m 0 min 0 min 24 W/m 36,0 km/h (5 Bft) 100,00 %
05.04.2018 07:52 9,5 C 9,4 C 8,3 C 88 % 0 lf 1003,5 hPa 0,0 l/m 0 min 2 min 18 W/m 38,3 km/h (5 Bft) 94,29 %
05.04.2018 07:54 9,5 C 9,4 C 8,3 C 88 % 0 lf 1003,5 hPa 0,0 l/m 0 min 0 min 12 W/m 33,8 km/h (5 Bft) 100,00 %
05.04.2018 07:56 9,4 C 9,4 C 8,3 C 88 % 0 lf 1003,7 hPa 0,0 l/m 0 min 0 min 11 W/m 33,8 km/h (5 Bft) 97,87 %
05.04.2018 07:58 9,4 C 9,4 C 8,3 C 88 % 0 lf 1003,7 hPa 0,0 l/m 0 min 0 min 13 W/m 42,8 km/h (6 Bft) 97,83 %
05.04.2018 08:00 9,4 C 9,4 C 8,3 C 88 % 0 lf 1003,7 hPa 0,0 l/m 0 min 0 min 16 W/m 38,3 km/h (5 Bft) 97,87 %
05.04.2018 08:02 9,4 C 9,4 C 8,3 C 88 % 0 lf 1003,8 hPa 0,0 l/m 0 min 0 min 26 W/m 38,3 km/h (5 Bft) 97,87 %
05.04.2018 08:04 9,4 C 9,4 C 8,3 C 88 % 0 lf 1003,9 hPa 0,0 l/m 0 min 0 min 28 W/m 51,8 km/h (7 Bft) 97,87 %
05.04.2018 08:08 9,3 C 9,4 C 8,3 C 87 % 0 lf 1003,9 hPa 0,0 l/m 0 min 0 min 39 W/m 40,6 km/h (6 Bft) 96,00 %
05.04.2018 08:10 9,3 C 9,4 C 8,3 C 87 % 0 lf 1004,0 hPa 0,0 l/m 0 min 0 min 40 W/m 45,1 km/h (6 Bft) 97,87 %
05.04.2018 08:12 9,3 C 9,4 C 8,3 C 87 % 0 lf 1004,0 hPa 0,0 l/m 0 min 0 min 29 W/m 42,8 km/h (6 Bft) 97,87 %
05.04.2018 08:14 9,3 C 9,4 C 8,3 C 87 % 0 lf 1004,0 hPa 0,0 l/m 0 min 0 min 29 W/m 42,8 km/h (6 Bft) 97,83 %
05.04.2018 08:16 9,3 C 9,4 C 8,3 C 87 % 0 lf 1004,1 hPa 0,0 l/m 0 min 0 min 37 W/m 40,6 km/h (6 Bft) 95,74 %
05.04.2018 08:18 9,3 C 9,4 C 8,3 C 87 % 0 lf 1004,2 hPa 0,0 l/m 0 min 0 min 40 W/m 45,1 km/h (6 Bft) 95,74 %
05.04.2018 08:20 9,2 C 8,9 C 8,3 C 86 % 0 lf 1004,2 hPa 0,0 l/m 0 min 0 min 33 W/m 47,3 km/h (6 Bft) 96,61 %
05.04.2018 08:22 9,2 C 8,9 C 8,3 C 86 % 0 lf 1004,2 hPa 0,0 l/m 0 min 0 min 34 W/m 33,8 km/h (5 Bft) 100,00 %
05.04.2018 08:24 9,2 C 8,9 C 7,8 C 86 % 0 lf 1004,2 hPa 0,0 l/m 0 min 0 min 24 W/m 47,3 km/h (6 Bft) 95,74 %
05.04.2018 08:26 9,2 C 8,9 C 7,8 C 86 % 0 lf 1004,2 hPa 0,0 l/m 0 min 0 min 21 W/m 47,3 km/h (6 Bft) 93,48 %
05.04.2018 08:28 9,1 C 8,9 C 7,8 C 85 % 0 lf 1004,2 hPa 0,0 l/m 0 min 0 min 18 W/m 51,8 km/h (7 Bft) 100,00 %
05.04.2018 08:30 9,1 C 8,9 C 7,8 C 85 % 0 lf 1004,3 hPa 0,0 l/m 0 min 0 min 21 W/m 33,8 km/h (5 Bft) 97,87 %
05.04.2018 08:32 9,1 C 8,9 C 7,8 C 85 % 0 lf 1004,4 hPa 0,0 l/m 0 min 0 min 28 W/m 40,6 km/h (6 Bft) 91,49 %
05.04.2018 08:34 9,0 C 8,9 C 7,8 C 85 % 0 lf 1004,5 hPa 0,0 l/m 0 min 0 min 28 W/m 40,6 km/h (6 Bft) 93,62 %
05.04.2018 08:38 8,9 C 8,3 C 7,2 C 85 % 14 lf 1004,6 hPa 0,0 l/m 0 min 4 min 29 W/m 40,6 km/h (6 Bft) 93,55 %
05.04.2018 08:40 8,9 C 8,3 C 6,7 C 85 % 15 lf 1004,6 hPa 0,0 l/m 0 min 2 min 31 W/m 40,6 km/h (6 Bft) 93,62 %
05.04.2018 08:42 8,8 C 8,3 C 6,7 C 85 % 15 lf 1004,7 hPa 0,0 l/m 0 min 2 min 21 W/m 38,3 km/h (5 Bft) 95,74 %
05.04.2018 08:44 8,8 C 8,3 C 6,7 C 85 % 15 lf 1004,8 hPa 0,0 l/m 0 min 0 min 25 W/m 31,5 km/h (5 Bft) 95,74 %
05.04.2018 08:46 8,7 C 8,3 C 6,7 C 86 % 15 lf 1004,8 hPa 0,0 l/m 0 min 0 min 34 W/m 29,3 km/h (5 Bft) 93,62 %
05.04.2018 08:48 8,7 C 8,3 C 6,7 C 86 % 12 lf 1004,8 hPa 0,0 l/m 0 min 0 min 39 W/m 40,6 km/h (6 Bft) 93,62 %
05.04.2018 08:50 8,7 C 8,3 C 6,7 C 86 % 14 lf 1004,8 hPa 0,0 l/m 0 min 2 min 39 W/m 40,6 km/h (6 Bft) 95,65 %
05.04.2018 08:52 8,6 C 8,3 C 6,7 C 86 % 10 lf 1004,8 hPa 0,0 l/m 0 min 2 min 47 W/m 38,3 km/h (5 Bft) 93,62 %
05.04.2018 08:54 8,6 C 8,3 C 6,7 C 86 % 3 lf 1004,9 hPa 0,0 l/m 0 min 2 min 46 W/m 49,6 km/h (6 Bft) 95,74 %
05.04.2018 08:56 8,5 C 8,3 C 7,2 C 85 % 0 lf 1004,8 hPa 0,0 l/m 0 min 2 min 43 W/m 42,8 km/h (6 Bft) 95,74 %
05.04.2018 08:58 8,5 C 8,3 C 7,2 C 85 % 0 lf 1005,0 hPa 0,0 l/m 0 min 2 min 37 W/m 38,3 km/h (5 Bft) 95,74 %
05.04.2018 09:00 8,4 C 8,3 C 7,2 C 85 % 0 lf 1005,1 hPa 0,0 l/m 0 min 0 min 33 W/m 31,5 km/h (5 Bft) 95,74 %
05.04.2018 09:02 8,4 C 8,3 C 7,2 C 84 % 0 lf 1005,0 hPa 0,0 l/m 0 min 2 min 35 W/m 42,8 km/h (6 Bft) 95,65 %
05.04.2018 09:04 8,4 C 8,3 C 7,2 C 84 % 0 lf 1005,2 hPa 0,0 l/m 0 min 2 min 34 W/m 38,3 km/h (5 Bft) 93,62 %
05.04.2018 09:08 8,4 C 8,3 C 7,2 C 83 % 0 lf 1005,2 hPa 0,0 l/m 0 min 0 min 35 W/m 38,3 km/h (5 Bft) 96,81 %
05.04.2018 09:10 8,4 C 8,3 C 7,2 C 83 % 0 lf 1005,2 hPa 0,0 l/m 0 min 0 min 34 W/m 47,3 km/h (6 Bft) 93,62 %
05.04.2018 09:12 8,4 C 8,3 C 7,2 C 82 % 0 lf 1005,3 hPa 0,0 l/m 0 min 0 min 40 W/m 45,1 km/h (6 Bft) 95,74 %
05.04.2018 09:14 8,4 C 8,3 C 7,2 C 82 % 0 lf 1005,3 hPa 0,0 l/m 0 min 0 min 42 W/m 42,8 km/h (6 Bft) 95,65 %
05.04.2018 09:16 8,4 C 8,3 C 7,2 C 82 % 0 lf 1005,5 hPa 0,0 l/m 0 min 0 min 31 W/m 38,3 km/h (5 Bft) 95,74 %
05.04.2018 09:18 8,3 C 8,3 C 7,2 C 82 % 0 lf 1005,5 hPa 0,0 l/m 0 min 0 min 30 W/m 42,8 km/h (6 Bft) 93,62 %
05.04.2018 09:20 8,3 C 8,3 C 7,2 C 81 % 0 lf 1005,5 hPa 0,0 l/m 0 min 0 min 35 W/m 54,1 km/h (7 Bft) 89,83 %
05.04.2018 09:22 8,3 C 8,3 C 7,2 C 81 % 0 lf 1005,5 hPa 0,0 l/m 0 min 0 min 43 W/m 40,6 km/h (6 Bft) 91,43 %
05.04.2018 09:24 8,3 C 8,3 C 7,2 C 81 % 0 lf 1005,6 hPa 0,0 l/m 0 min 0 min 39 W/m 58,6 km/h (7 Bft) 93,48 %
05.04.2018 09:26 8,3 C 8,3 C 7,2 C 81 % 0 lf 1005,7 hPa 0,0 l/m 0 min 0 min 47 W/m 54,1 km/h (7 Bft) 91,49 %
05.04.2018 09:28 8,3 C 8,3 C 7,2 C 81 % 0 lf 1005,6 hPa 0,0 l/m 0 min 0 min 61 W/m 54,1 km/h (7 Bft) 95,74 %
05.04.2018 09:30 8,2 C 8,3 C 7,2 C 80 % 0 lf 1005,7 hPa 0,0 l/m 0 min 0 min 53 W/m 49,6 km/h (6 Bft) 97,87 %
05.04.2018 09:32 8,2 C 8,3 C 7,2 C 81 % 0 lf 1005,8 hPa 0,0 l/m 0 min 0 min 51 W/m 40,6 km/h (6 Bft) 91,49 %
05.04.2018 09:34 8,2 C 8,3 C 7,2 C 81 % 0 lf 1005,8 hPa 0,0 l/m 0 min 0 min 67 W/m 31,5 km/h (5 Bft) 97,87 %
05.04.2018 09:38 8,2 C 8,3 C 7,8 C 81 % 0 lf 1005,9 hPa 0,0 l/m 0 min 0 min 105 W/m 42,8 km/h (6 Bft) 97,85 %
05.04.2018 09:40 8,2 C 8,3 C 7,8 C 81 % 0 lf 1006,1 hPa 0,0 l/m 0 min 0 min 113 W/m 54,1 km/h (7 Bft) 95,74 %
05.04.2018 09:42 8,2 C 8,3 C 7,8 C 81 % 0 lf 1006,1 hPa 0,0 l/m 0 min 0 min 116 W/m 54,1 km/h (7 Bft) 95,74 %
05.04.2018 09:44 8,2 C 8,3 C 7,8 C 81 % 0 lf 1006,2 hPa 0,0 l/m 0 min 0 min 127 W/m 56,3 km/h (7 Bft) 95,74 %
05.04.2018 09:46 8,2 C 8,3 C 7,8 C 81 % 0 lf 1006,1 hPa 0,0 l/m 0 min 0 min 111 W/m 47,3 km/h (6 Bft) 97,87 %
05.04.2018 09:48 8,2 C 8,3 C 7,8 C 81 % 0 lf 1006,2 hPa 0,0 l/m 0 min 0 min 99 W/m 47,3 km/h (6 Bft) 95,65 %
05.04.2018 09:50 8,2 C 8,3 C 7,8 C 81 % 0 lf 1006,2 hPa 0,0 l/m 0 min 0 min 94 W/m 33,8 km/h (5 Bft) 97,87 %
05.04.2018 09:52 8,2 C 8,3 C 7,8 C 82 % 0 lf 1006,3 hPa 0,0 l/m 0 min 0 min 86 W/m 45,1 km/h (6 Bft) 97,87 %
05.04.2018 09:54 8,2 C 8,3 C 7,8 C 82 % 0 lf 1006,3 hPa 0,0 l/m 0 min 0 min 77 W/m 40,6 km/h (6 Bft) 95,74 %
05.04.2018 09:56 8,2 C 8,3 C 7,8 C 81 % 0 lf 1006,5 hPa 0,0 l/m 0 min 0 min 87 W/m 45,1 km/h (6 Bft) 95,74 %
05.04.2018 09:58 8,2 C 8,3 C 7,8 C 82 % 0 lf 1006,6 hPa 0,0 l/m 0 min 0 min 101 W/m 33,8 km/h (5 Bft) 93,62 %
05.04.2018 10:00 8,2 C 8,3 C 7,8 C 82 % 0 lf 1006,5 hPa 0,0 l/m 0 min 0 min 79 W/m 33,8 km/h (5 Bft) 95,65 %
05.04.2018 10:02 8,2 C 8,3 C 7,8 C 82 % 0 lf 1006,7 hPa 0,0 l/m 0 min 0 min 82 W/m 31,5 km/h (5 Bft) 93,62 %
05.04.2018 10:04 8,2 C 8,3 C 7,8 C 82 % 0 lf 1006,7 hPa 0,0 l/m 0 min 0 min 72 W/m 31,5 km/h (5 Bft) 97,87 %
05.04.2018 10:08 8,2 C 8,3 C 7,8 C 82 % 0 lf 1006,7 hPa 0,0 l/m 0 min 0 min 66 W/m 27,0 km/h (4 Bft) 96,81 %
05.04.2018 10:10 8,2 C 8,3 C 7,2 C 82 % 3 lf 1006,8 hPa 0,0 l/m 0 min 0 min 61 W/m 47,3 km/h (6 Bft) 97,87 %
05.04.2018 10:12 8,2 C 8,3 C 7,2 C 82 % 13 lf 1006,9 hPa 0,0 l/m 0 min 2 min 72 W/m 33,8 km/h (5 Bft) 95,65 %
05.04.2018 10:14 8,2 C 7,8 C 6,7 C 83 % 15 lf 1006,9 hPa 0,0 l/m 0 min 2 min 73 W/m 31,5 km/h (5 Bft) 95,74 %
05.04.2018 10:16 8,2 C 7,8 C 6,1 C 83 % 15 lf 1007,1 hPa 0,0 l/m 0 min 2 min 65 W/m 40,6 km/h (6 Bft) 95,74 %
05.04.2018 10:18 8,1 C 7,2 C 6,1 C 84 % 15 lf 1007,1 hPa 0,0 l/m 0 min 2 min 57 W/m 38,3 km/h (5 Bft) 97,87 %
05.04.2018 10:20 8,0 C 7,2 C 5,6 C 84 % 15 lf 1007,2 hPa 0,0 l/m 0 min 2 min 33 W/m 27,0 km/h (4 Bft) 97,87 %
05.04.2018 10:22 7,9 C 7,2 C 5,6 C 85 % 15 lf 1007,2 hPa 0,0 l/m 0 min 2 min 29 W/m 22,5 km/h (4 Bft) 95,65 %
05.04.2018 10:24 7,9 C 7,2 C 5,6 C 85 % 15 lf 1007,3 hPa 0,0 l/m 0 min 2 min 32 W/m 31,5 km/h (5 Bft) 97,87 %
05.04.2018 10:26 7,8 C 7,2 C 5,6 C 86 % 15 lf 1007,4 hPa 0,0 l/m 0 min 2 min 29 W/m 36,0 km/h (5 Bft) 97,87 %
05.04.2018 10:28 7,8 C 6,7 C 5,6 C 86 % 15 lf 1007,5 hPa 0,0 l/m 0 min 2 min 31 W/m 29,3 km/h (5 Bft) 100,00 %
05.04.2018 10:30 7,7 C 6,7 C 5,6 C 86 % 15 lf 1007,7 hPa 0,0 l/m 0 min 2 min 35 W/m 29,3 km/h (5 Bft) 97,87 %
05.04.2018 10:32 7,6 C 6,7 C 5,6 C 86 % 15 lf 1007,6 hPa 0,0 l/m 0 min 2 min 30 W/m 18,0 km/h (3 Bft) 97,87 %
05.04.2018 10:34 7,5 C 6,7 C 5,6 C 87 % 15 lf 1007,6 hPa 0,0 l/m 0 min 2 min 27 W/m 29,3 km/h (5 Bft) 100,00 %
05.04.2018 10:38 7,3 C 6,7 C 5,0 C 87 % 15 lf 1008,0 hPa 0,0 l/m 0 min 4 min 27 W/m 47,3 km/h (6 Bft) 100,00 %
05.04.2018 10:40 7,3 C 6,7 C 5,0 C 87 % 15 lf 1007,9 hPa 0,0 l/m 0 min 2 min 25 W/m 33,8 km/h (5 Bft) 100,00 %
05.04.2018 10:42 7,2 C 6,7 C 5,0 C 87 % 15 lf 1007,9 hPa 0,0 l/m 0 min 2 min 25 W/m 31,5 km/h (5 Bft) 97,87 %
05.04.2018 10:44 7,2 C 6,7 C 5,0 C 87 % 15 lf 1008,0 hPa 0,0 l/m 0 min 2 min 32 W/m 18,0 km/h (3 Bft) 97,87 %
05.04.2018 10:46 7,1 C 6,7 C 5,6 C 87 % 15 lf 1008,1 hPa 0,0 l/m 0 min 2 min 36 W/m 18,0 km/h (3 Bft) 97,83 %
05.04.2018 10:48 7,1 C 6,7 C 5,6 C 88 % 15 lf 1008,1 hPa 0,0 l/m 0 min 2 min 55 W/m 29,3 km/h (5 Bft) 97,87 %
05.04.2018 10:50 7,1 C 6,7 C 5,6 C 88 % 15 lf 1008,2 hPa 0,0 l/m 0 min 2 min 82 W/m 31,5 km/h (5 Bft) 95,74 %
05.04.2018 10:52 7,0 C 6,7 C 5,6 C 88 % 15 lf 1008,2 hPa 0,0 l/m 0 min 2 min 93 W/m 38,3 km/h (5 Bft) 97,87 %
05.04.2018 10:54 6,9 C 6,7 C 5,6 C 88 % 15 lf 1008,3 hPa 0,0 l/m 0 min 2 min 126 W/m 38,3 km/h (5 Bft) 100,00 %
05.04.2018 10:56 6,9 C 6,7 C 5,6 C 88 % 15 lf 1008,3 hPa 0,0 l/m 0 min 2 min 131 W/m 33,8 km/h (5 Bft) 97,87 %
05.04.2018 10:58 6,8 C 6,7 C 5,6 C 89 % 15 lf 1008,3 hPa 0,0 l/m 0 min 2 min 78 W/m 29,3 km/h (5 Bft) 100,00 %
05.04.2018 11:00 6,8 C 6,1 C 5,6 C 89 % 15 lf 1008,4 hPa 0,0 l/m 0 min 2 min 58 W/m 29,3 km/h (5 Bft) 100,00 %
05.04.2018 11:02 6,8 C 6,1 C 5,0 C 89 % 15 lf 1008,4 hPa 0,0 l/m 0 min 2 min 67 W/m 29,3 km/h (5 Bft) 97,87 %
05.04.2018 11:04 6,7 C 6,7 C 5,0 C 89 % 15 lf 1008,6 hPa 0,0 l/m 0 min 2 min 81 W/m 33,8 km/h (5 Bft) 100,00 %
05.04.2018 11:08 6,7 C 6,7 C 5,6 C 89 % 15 lf 1008,7 hPa 0,0 l/m 0 min 4 min 97 W/m 24,8 km/h (4 Bft) 98,94 %
05.04.2018 11:10 6,7 C 7,2 C 5,6 C 90 % 15 lf 1008,7 hPa 0,0 l/m 0 min 2 min 128 W/m 22,5 km/h (4 Bft) 100,00 %
05.04.2018 11:12 6,7 C 7,2 C 5,6 C 90 % 15 lf 1008,8 hPa 0,0 l/m 0 min 2 min 135 W/m 31,5 km/h (5 Bft) 97,87 %
05.04.2018 11:14 6,7 C 7,2 C 5,6 C 90 % 15 lf 1008,9 hPa 0,0 l/m 0 min 2 min 119 W/m 31,5 km/h (5 Bft) 97,87 %
05.04.2018 11:16 6,7 C 7,2 C 5,6 C 90 % 15 lf 1008,9 hPa 0,0 l/m 0 min 2 min 88 W/m 20,3 km/h (4 Bft) 100,00 %
05.04.2018 11:18 6,7 C 7,2 C 5,6 C 90 % 15 lf 1008,9 hPa 0,0 l/m 0 min 2 min 81 W/m 22,5 km/h (4 Bft) 100,00 %
05.04.2018 11:20 6,7 C 6,7 C 5,6 C 90 % 15 lf 1008,9 hPa 0,0 l/m 0 min 2 min 76 W/m 24,8 km/h (4 Bft) 95,74 %
05.04.2018 11:22 6,7 C 6,7 C 5,6 C 90 % 15 lf 1008,9 hPa 0,0 l/m 0 min 0 min 55 W/m 20,3 km/h (4 Bft) 100,00 %
05.04.2018 11:24 6,7 C 6,7 C 5,6 C 90 % 15 lf 1008,9 hPa 0,0 l/m 0 min 0 min 56 W/m 29,3 km/h (5 Bft) 93,62 %
05.04.2018 11:26 6,7 C 6,7 C 5,6 C 90 % 15 lf 1009,0 hPa 0,0 l/m 0 min 0 min 52 W/m 27,0 km/h (4 Bft) 100,00 %
05.04.2018 11:28 6,7 C 6,7 C 5,0 C 90 % 15 lf 1009,0 hPa 0,0 l/m 0 min 0 min 57 W/m 29,3 km/h (5 Bft) 100,00 %
05.04.2018 11:30 6,7 C 6,7 C 5,0 C 90 % 15 lf 1009,1 hPa 0,0 l/m 0 min 0 min 72 W/m 31,5 km/h (5 Bft) 91,49 %
05.04.2018 11:32 6,7 C 7,2 C 5,6 C 91 % 15 lf 1009,1 hPa 0,0 l/m 0 min 0 min 150 W/m 20,3 km/h (4 Bft) 100,00 %
05.04.2018 11:34 6,7 C 7,8 C 6,1 C 91 % 15 lf 1009,2 hPa 0,0 l/m 0 min 0 min 179 W/m 18,0 km/h (3 Bft) 97,83 %
05.04.2018 11:38 6,8 C 8,3 C 6,7 C 91 % 15 lf 1009,2 hPa 0,0 l/m 0 min 0 min 243 W/m 27,0 km/h (4 Bft) 96,81 %
05.04.2018 11:40 6,8 C 8,3 C 6,7 C 91 % 15 lf 1009,3 hPa 0,0 l/m 0 min 0 min 256 W/m 47,3 km/h (6 Bft) 97,87 %
05.04.2018 11:42 6,8 C 8,9 C 6,7 C 90 % 14 lf 1009,3 hPa 0,0 l/m 0 min 0 min 289 W/m 40,6 km/h (6 Bft) 97,87 %
05.04.2018 11:44 6,8 C 9,4 C 7,2 C 90 % 9 lf 1009,4 hPa 0,0 l/m 0 min 0 min 299 W/m 36,0 km/h (5 Bft) 97,83 %
05.04.2018 11:46 6,9 C 9,4 C 7,2 C 90 % 2 lf 1009,4 hPa 0,0 l/m 0 min 0 min 274 W/m 29,3 km/h (5 Bft) 97,87 %
05.04.2018 11:48 7,0 C 9,4 C 7,2 C 90 % 0 lf 1009,4 hPa 0,0 l/m 0 min 0 min 240 W/m 33,8 km/h (5 Bft) 95,74 %
05.04.2018 11:50 7,0 C 8,9 C 6,7 C 89 % 0 lf 1009,5 hPa 0,0 l/m 0 min 0 min 184 W/m 36,0 km/h (5 Bft) 95,74 %
05.04.2018 11:52 7,1 C 8,3 C 6,7 C 88 % 0 lf 1009,5 hPa 0,0 l/m 0 min 0 min 149 W/m 31,5 km/h (5 Bft) 93,75 %
05.04.2018 11:54 7,1 C 8,3 C 6,7 C 87 % 0 lf 1009,6 hPa 0,0 l/m 0 min 0 min 126 W/m 38,3 km/h (5 Bft) 95,74 %
05.04.2018 11:56 7,1 C 8,3 C 6,7 C 87 % 0 lf 1009,7 hPa 0,0 l/m 0 min 2 min 143 W/m 31,5 km/h (5 Bft) 97,83 %
05.04.2018 11:58 7,2 C 8,3 C 7,2 C 86 % 0 lf 1009,7 hPa 0,0 l/m 0 min 0 min 243 W/m 33,8 km/h (5 Bft) 91,49 %
05.04.2018 12:00 7,2 C 9,4 C 7,8 C 86 % 0 lf 1009,8 hPa 0,0 l/m 2 min 0 min 328 W/m 33,8 km/h (5 Bft) 89,36 %
05.04.2018 12:02 7,3 C 11,7 C 9,4 C 86 % 0 lf 1009,7 hPa 0,0 l/m 0 min 0 min 274 W/m 31,5 km/h (5 Bft) 91,49 %
05.04.2018 12:04 7,4 C 12,2 C 10,0 C 86 % 0 lf 1009,7 hPa 0,0 l/m 2 min 0 min 384 W/m 36,0 km/h (5 Bft) 89,36 %
05.04.2018 12:08 7,7 C 10,6 C 10,0 C 84 % 0 lf 1009,9 hPa 0,0 l/m 4 min 0 min 345 W/m 42,8 km/h (6 Bft) 90,32 %
05.04.2018 12:10 7,7 C 10,6 C 9,4 C 83 % 0 lf 1009,9 hPa 0,0 l/m 0 min 0 min 283 W/m 38,3 km/h (5 Bft) 91,84 %
05.04.2018 12:12 7,8 C 13,9 C 11,1 C 83 % 0 lf 1009,9 hPa 0,0 l/m 2 min 0 min 421 W/m 24,8 km/h (4 Bft) 93,62 %
05.04.2018 12:14 8,1 C 13,9 C 12,2 C 83 % 0 lf 1010,0 hPa 0,0 l/m 2 min 0 min 842 W/m 29,3 km/h (5 Bft) 91,49 %
05.04.2018 12:16 8,2 C 12,2 C 11,1 C 83 % 0 lf 1010,0 hPa 0,0 l/m 2 min 0 min 571 W/m 38,3 km/h (5 Bft) 89,36 %
05.04.2018 12:18 8,2 C 10,6 C 10,0 C 82 % 0 lf 1010,1 hPa 0,0 l/m 0 min 0 min 237 W/m 47,3 km/h (6 Bft) 86,96 %
05.04.2018 12:20 8,2 C 10,0 C 9,4 C 81 % 0 lf 1010,1 hPa 0,0 l/m 0 min 0 min 201 W/m 36,0 km/h (5 Bft) 91,49 %
05.04.2018 12:22 8,3 C 9,4 C 9,4 C 81 % 0 lf 1010,1 hPa 0,0 l/m 0 min 0 min 172 W/m 33,8 km/h (5 Bft) 91,49 %
05.04.2018 12:24 8,2 C 8,9 C 8,3 C 80 % 0 lf 1010,2 hPa 0,0 l/m 0 min 0 min 147 W/m 54,1 km/h (7 Bft) 91,49 %
05.04.2018 12:26 8,1 C 8,3 C 7,8 C 80 % 0 lf 1010,2 hPa 0,0 l/m 0 min 0 min 147 W/m 42,8 km/h (6 Bft) 93,62 %
05.04.2018 12:28 8,1 C 9,4 C 8,9 C 80 % 0 lf 1010,3 hPa 0,0 l/m 0 min 0 min 261 W/m 27,0 km/h (4 Bft) 93,62 %
05.04.2018 12:30 8,1 C 9,4 C 8,9 C 81 % 0 lf 1010,2 hPa 0,0 l/m 0 min 0 min 201 W/m 31,5 km/h (5 Bft) 89,13 %
05.04.2018 12:32 8,1 C 9,4 C 9,4 C 81 % 0 lf 1010,4 hPa 0,0 l/m 0 min 0 min 256 W/m 29,3 km/h (5 Bft) 91,49 %
05.04.2018 12:34 8,1 C 10,0 C 9,4 C 81 % 0 lf 1010,4 hPa 0,0 l/m 0 min 0 min 243 W/m 24,8 km/h (4 Bft) 93,62 %
05.04.2018 12:38 8,2 C 13,9 C 12,2 C 82 % 0 lf 1010,6 hPa 0,0 l/m 4 min 0 min 671 W/m 45,1 km/h (6 Bft) 95,74 %
05.04.2018 12:40 8,4 C 15,0 C 12,2 C 81 % 0 lf 1010,5 hPa 0,0 l/m 2 min 0 min 773 W/m 33,8 km/h (5 Bft) 95,74 %
05.04.2018 12:42 8,6 C 15,6 C 12,8 C 81 % 0 lf 1010,5 hPa 0,0 l/m 2 min 0 min 737 W/m 38,3 km/h (5 Bft) 95,65 %
05.04.2018 12:44 8,7 C 14,4 C 12,2 C 80 % 0 lf 1010,6 hPa 0,0 l/m 2 min 0 min 488 W/m 31,5 km/h (5 Bft) 95,74 %
05.04.2018 12:46 8,8 C 13,9 C 12,2 C 80 % 0 lf 1010,6 hPa 0,0 l/m 2 min 0 min 489 W/m 31,5 km/h (5 Bft) 97,87 %
05.04.2018 12:48 8,9 C 12,2 C 11,1 C 79 % 14 lf 1010,6 hPa 0,0 l/m 0 min 0 min 296 W/m 29,3 km/h (5 Bft) 97,87 %
05.04.2018 12:50 8,9 C 9,4 C 8,9 C 79 % 15 lf 1010,9 hPa 0,0 l/m 0 min 2 min 134 W/m 45,1 km/h (6 Bft) 97,87 %
05.04.2018 12:52 8,8 C 9,4 C 7,8 C 79 % 15 lf 1010,9 hPa 0,0 l/m 0 min 2 min 181 W/m 36,0 km/h (5 Bft) 97,87 %
05.04.2018 12:54 8,7 C 9,4 C 7,8 C 80 % 15 lf 1010,9 hPa 0,0 l/m 0 min 2 min 289 W/m 18,0 km/h (3 Bft) 100,00 %
05.04.2018 12:56 8,6 C 9,4 C 7,8 C 81 % 15 lf 1011,0 hPa 0,0 l/m 0 min 2 min 336 W/m 51,8 km/h (7 Bft) 97,87 %
05.04.2018 12:58 8,6 C 10,0 C 8,3 C 81 % 15 lf 1011,1 hPa 0,0 l/m 2 min 2 min 372 W/m 31,5 km/h (5 Bft) 100,00 %
05.04.2018 13:00 8,4 C 10,6 C 8,3 C 81 % 15 lf 1011,0 hPa 0,0 l/m 2 min 0 min 371 W/m 36,0 km/h (5 Bft) 100,00 %
05.04.2018 13:02 8,4 C 10,6 C 8,3 C 81 % 14 lf 1011,1 hPa 0,0 l/m 0 min 2 min 308 W/m 29,3 km/h (5 Bft) 100,00 %
05.04.2018 13:04 8,4 C 10,0 C 8,9 C 81 % 9 lf 1011,2 hPa 0,0 l/m 0 min 0 min 266 W/m 36,0 km/h (5 Bft) 97,87 %
05.04.2018 13:08 8,3 C 9,4 C 8,9 C 80 % 0 lf 1011,3 hPa 0,0 l/m 0 min 0 min 232 W/m 40,6 km/h (6 Bft) 98,92 %
05.04.2018 13:10 8,2 C 9,4 C 8,9 C 80 % 0 lf 1011,4 hPa 0,0 l/m 0 min 0 min 220 W/m 38,3 km/h (5 Bft) 97,87 %
05.04.2018 13:12 8,2 C 8,9 C 8,9 C 80 % 0 lf 1011,4 hPa 0,0 l/m 0 min 0 min 217 W/m 49,6 km/h (6 Bft) 100,00 %
05.04.2018 13:14 8,1 C 8,9 C 8,3 C 80 % 0 lf 1011,5 hPa 0,0 l/m 0 min 0 min 210 W/m 38,3 km/h (5 Bft) 100,00 %
05.04.2018 13:16 8,1 C 8,3 C 7,2 C 80 % 1 lf 1011,6 hPa 0,0 l/m 0 min 2 min 124 W/m 40,6 km/h (6 Bft) 97,87 %
05.04.2018 13:18 7,9 C 7,8 C 6,7 C 79 % 7 lf 1011,7 hPa 0,0 l/m 0 min 2 min 75 W/m 36,0 km/h (5 Bft) 100,00 %
05.04.2018 13:20 7,8 C 7,8 C 6,7 C 80 % 4 lf 1011,9 hPa 0,0 l/m 0 min 0 min 66 W/m 24,8 km/h (4 Bft) 100,00 %
05.04.2018 13:22 7,8 C 7,2 C 6,1 C 81 % 15 lf 1011,9 hPa 0,0 l/m 0 min 2 min 64 W/m 29,3 km/h (5 Bft) 97,87 %
05.04.2018 13:24 7,7 C 7,2 C 6,1 C 81 % 15 lf 1011,9 hPa 0,0 l/m 0 min 2 min 72 W/m 31,5 km/h (5 Bft) 97,87 %
05.04.2018 13:26 7,6 C 7,2 C 5,6 C 82 % 15 lf 1012,0 hPa 0,0 l/m 0 min 2 min 67 W/m 31,5 km/h (5 Bft) 100,00 %
05.04.2018 13:28 7,6 C 7,2 C 5,6 C 82 % 15 lf 1012,1 hPa 0,0 l/m 0 min 2 min 65 W/m 33,8 km/h (5 Bft) 100,00 %
05.04.2018 13:30 7,5 C 6,7 C 5,6 C 83 % 15 lf 1012,1 hPa 0,0 l/m 0 min 2 min 72 W/m 29,3 km/h (5 Bft) 100,00 %
05.04.2018 13:32 7,4 C 6,7 C 5,6 C 83 % 15 lf 1012,3 hPa 0,0 l/m 0 min 2 min 83 W/m 36,0 km/h (5 Bft) 95,74 %
05.04.2018 13:34 7,3 C 6,7 C 5,6 C 83 % 15 lf 1012,3 hPa 0,0 l/m 0 min 2 min 89 W/m 36,0 km/h (5 Bft) 100,00 %
05.04.2018 13:38 7,2 C 7,2 C 6,7 C 84 % 15 lf 1012,3 hPa 0,0 l/m 0 min 4 min 174 W/m 38,3 km/h (5 Bft) 100,00 %
05.04.2018 13:40 7,2 C 8,3 C 7,2 C 84 % 15 lf 1012,4 hPa 0,0 l/m 0 min 2 min 334 W/m 36,0 km/h (5 Bft) 97,83 %
05.04.2018 13:42 7,3 C 9,4 C 7,8 C 84 % 15 lf 1012,4 hPa 0,0 l/m 0 min 2 min 339 W/m 29,3 km/h (5 Bft) 97,87 %
05.04.2018 13:44 7,3 C 10,0 C 7,8 C 84 % 15 lf 1012,5 hPa 0,0 l/m 0 min 0 min 333 W/m 27,0 km/h (4 Bft) 97,87 %
05.04.2018 13:46 7,3 C 10,0 C 7,8 C 84 % 14 lf 1012,5 hPa 0,0 l/m 0 min 2 min 301 W/m 29,3 km/h (5 Bft) 97,87 %
05.04.2018 13:48 7,4 C 9,4 C 7,8 C 84 % 12 lf 1012,6 hPa 0,0 l/m 0 min 2 min 191 W/m 27,0 km/h (4 Bft) 97,87 %
05.04.2018 13:50 7,4 C 8,9 C 7,2 C 84 % 4 lf 1012,6 hPa 0,0 l/m 0 min 2 min 175 W/m 42,8 km/h (6 Bft) 97,87 %
05.04.2018 13:52 7,4 C 8,9 C 7,2 C 84 % 0 lf 1012,6 hPa 0,0 l/m 0 min 2 min 171 W/m 38,3 km/h (5 Bft) 100,00 %
05.04.2018 13:54 7,4 C 8,3 C 7,2 C 83 % 0 lf 1012,7 hPa 0,0 l/m 0 min 2 min 147 W/m 31,5 km/h (5 Bft) 100,00 %
05.04.2018 13:56 7,4 C 8,3 C 7,2 C 82 % 0 lf 1012,7 hPa 0,0 l/m 0 min 0 min 102 W/m 38,3 km/h (5 Bft) 97,87 %
05.04.2018 13:58 7,4 C 7,8 C 6,7 C 82 % 0 lf 1012,9 hPa 0,0 l/m 0 min 0 min 80 W/m 29,3 km/h (5 Bft) 97,87 %
05.04.2018 14:00 7,4 C 7,8 C 6,7 C 82 % 0 lf 1013,0 hPa 0,0 l/m 0 min 0 min 66 W/m 20,3 km/h (4 Bft) 97,87 %
05.04.2018 14:02 7,4 C 7,8 C 6,7 C 82 % 1 lf 1013,0 hPa 0,0 l/m 0 min 0 min 84 W/m 36,0 km/h (5 Bft) 100,00 %
05.04.2018 14:04 7,4 C 7,2 C 6,7 C 82 % 1 lf 1013,1 hPa 0,0 l/m 0 min 0 min 131 W/m 27,0 km/h (4 Bft) 100,00 %
05.04.2018 14:08 7,3 C 8,3 C 7,2 C 82 % 15 lf 1013,2 hPa 0,0 l/m 0 min 4 min 245 W/m 31,5 km/h (5 Bft) 98,94 %
05.04.2018 14:10 7,3 C 8,9 C 7,8 C 83 % 14 lf 1013,2 hPa 0,0 l/m 2 min 0 min 358 W/m 27,0 km/h (4 Bft) 95,74 %
05.04.2018 14:12 7,3 C 9,4 C 7,8 C 84 % 3 lf 1013,2 hPa 0,0 l/m 2 min 0 min 358 W/m 27,0 km/h (4 Bft) 95,74 %
05.04.2018 14:14 7,4 C 10,0 C 8,9 C 84 % 0 lf 1013,3 hPa 0,0 l/m 0 min 0 min 337 W/m 40,6 km/h (6 Bft) 97,87 %
05.04.2018 14:16 7,4 C 9,4 C 8,3 C 84 % 0 lf 1013,2 hPa 0,0 l/m 0 min 0 min 298 W/m 33,8 km/h (5 Bft) 97,83 %
05.04.2018 14:18 7,4 C 8,9 C 8,3 C 83 % 0 lf 1013,3 hPa 0,0 l/m 0 min 0 min 222 W/m 40,6 km/h (6 Bft) 95,74 %
05.04.2018 14:20 7,4 C 8,3 C 7,8 C 83 % 0 lf 1013,5 hPa 0,0 l/m 0 min 0 min 187 W/m 40,6 km/h (6 Bft) 95,74 %
05.04.2018 14:22 7,3 C 8,3 C 7,8 C 82 % 0 lf 1013,5 hPa 0,0 l/m 0 min 0 min 178 W/m 33,8 km/h (5 Bft) 97,87 %
05.04.2018 14:24 7,4 C 8,3 C 8,3 C 82 % 0 lf 1013,5 hPa 0,0 l/m 0 min 0 min 192 W/m 38,3 km/h (5 Bft) 97,87 %
05.04.2018 14:26 7,4 C 8,9 C 8,3 C 82 % 0 lf 1013,6 hPa 0,0 l/m 0 min 0 min 231 W/m 29,3 km/h (5 Bft) 95,74 %
05.04.2018 14:28 7,4 C 8,9 C 8,3 C 82 % 0 lf 1013,7 hPa 0,0 l/m 0 min 0 min 211 W/m 33,8 km/h (5 Bft) 95,65 %
05.04.2018 14:30 7,4 C 8,9 C 8,9 C 82 % 0 lf 1013,7 hPa 0,0 l/m 0 min 0 min 280 W/m 36,0 km/h (5 Bft) 95,74 %
05.04.2018 14:32 7,5 C 9,4 C 8,9 C 82 % 0 lf 1013,8 hPa 0,0 l/m 0 min 0 min 289 W/m 45,1 km/h (6 Bft) 95,74 %
05.04.2018 14:34 7,5 C 9,4 C 8,9 C 81 % 0 lf 1014,0 hPa 0,0 l/m 0 min 0 min 271 W/m 36,0 km/h (5 Bft) 93,62 %
05.04.2018 14:38 7,6 C 9,4 C 9,4 C 81 % 0 lf 1014,0 hPa 0,0 l/m 0 min 0 min 288 W/m 33,8 km/h (5 Bft) 97,87 %
05.04.2018 14:40 7,6 C 9,4 C 9,4 C 80 % 0 lf 1014,0 hPa 0,0 l/m 0 min 0 min 306 W/m 40,6 km/h (6 Bft) 91,30 %
05.04.2018 14:42 7,6 C 9,4 C 9,4 C 80 % 0 lf 1014,1 hPa 0,0 l/m 0 min 0 min 284 W/m 33,8 km/h (5 Bft) 91,49 %
05.04.2018 14:44 7,7 C 9,4 C 9,4 C 79 % 0 lf 1014,2 hPa 0,0 l/m 0 min 0 min 266 W/m 29,3 km/h (5 Bft) 93,62 %
05.04.2018 14:46 7,7 C 9,4 C 9,4 C 79 % 0 lf 1014,2 hPa 0,0 l/m 0 min 0 min 237 W/m 31,5 km/h (5 Bft) 91,49 %
05.04.2018 14:48 7,7 C 9,4 C 8,9 C 79 % 0 lf 1014,4 hPa 0,0 l/m 0 min 0 min 156 W/m 31,5 km/h (5 Bft) 93,62 %
05.04.2018 14:50 7,8 C 8,9 C 8,3 C 79 % 0 lf 1014,4 hPa 0,0 l/m 0 min 0 min 122 W/m 33,8 km/h (5 Bft) 95,74 %
05.04.2018 14:52 7,7 C 8,3 C 7,8 C 78 % 1 lf 1014,4 hPa 0,0 l/m 0 min 0 min 106 W/m 40,6 km/h (6 Bft) 93,48 %
05.04.2018 14:54 7,7 C 7,8 C 7,2 C 78 % 12 lf 1014,5 hPa 0,0 l/m 0 min 2 min 81 W/m 40,6 km/h (6 Bft) 95,74 %
05.04.2018 14:56 7,6 C 7,8 C 6,7 C 78 % 15 lf 1014,6 hPa 0,0 l/m 0 min 2 min 114 W/m 42,8 km/h (6 Bft) 93,62 %
05.04.2018 14:58 7,6 C 7,8 C 6,7 C 79 % 15 lf 1014,7 hPa 0,0 l/m 0 min 2 min 191 W/m 40,6 km/h (6 Bft) 95,74 %
05.04.2018 15:00 7,5 C 7,8 C 6,7 C 80 % 15 lf 1014,7 hPa 0,0 l/m 0 min 2 min 237 W/m 33,8 km/h (5 Bft) 95,74 %
05.04.2018 15:02 7,4 C 8,3 C 7,2 C 80 % 15 lf 1014,8 hPa 0,0 l/m 0 min 0 min 254 W/m 31,5 km/h (5 Bft) 93,48 %
05.04.2018 15:04 7,4 C 8,3 C 7,2 C 80 % 11 lf 1014,7 hPa 0,0 l/m 0 min 0 min 278 W/m 27,0 km/h (4 Bft) 91,49 %
05.04.2018 15:08 7,4 C 8,9 C 8,3 C 80 % 0 lf 1014,8 hPa 0,0 l/m 0 min 0 min 261 W/m 38,3 km/h (5 Bft) 92,55 %
05.04.2018 15:10 7,5 C 9,4 C 8,3 C 81 % 0 lf 1014,9 hPa 0,0 l/m 0 min 0 min 232 W/m 27,0 km/h (4 Bft) 93,62 %
05.04.2018 15:12 7,5 C 8,9 C 8,3 C 81 % 0 lf 1014,9 hPa 0,0 l/m 0 min 0 min 226 W/m 36,0 km/h (5 Bft) 93,62 %
05.04.2018 15:14 7,5 C 8,9 C 8,3 C 80 % 0 lf 1015,0 hPa 0,0 l/m 0 min 0 min 218 W/m 45,1 km/h (6 Bft) 93,48 %
05.04.2018 15:16 7,6 C 8,9 C 8,9 C 79 % 0 lf 1014,9 hPa 0,0 l/m 0 min 0 min 196 W/m 47,3 km/h (6 Bft) 91,49 %
05.04.2018 15:18 7,6 C 8,9 C 8,3 C 78 % 0 lf 1015,1 hPa 0,0 l/m 0 min 0 min 162 W/m 47,3 km/h (6 Bft) 93,62 %
05.04.2018 15:20 7,6 C 8,3 C 7,8 C 78 % 1 lf 1015,2 hPa 0,0 l/m 0 min 0 min 98 W/m 42,8 km/h (6 Bft) 93,62 %
05.04.2018 15:22 7,6 C 8,3 C 7,8 C 77 % 3 lf 1015,2 hPa 0,0 l/m 0 min 2 min 86 W/m 36,0 km/h (5 Bft) 91,49 %
05.04.2018 15:24 7,6 C 7,8 C 7,2 C 78 % 11 lf 1015,2 hPa 0,0 l/m 0 min 2 min 109 W/m 54,1 km/h (7 Bft) 91,49 %
05.04.2018 15:26 7,6 C 7,8 C 7,2 C 78 % 4 lf 1015,3 hPa 0,0 l/m 0 min 0 min 151 W/m 38,3 km/h (5 Bft) 93,48 %
05.04.2018 15:28 7,5 C 7,8 C 7,2 C 78 % 0 lf 1015,3 hPa 0,0 l/m 0 min 0 min 186 W/m 42,8 km/h (6 Bft) 95,74 %
05.04.2018 15:30 7,5 C 8,3 C 7,2 C 77 % 0 lf 1015,3 hPa 0,0 l/m 0 min 0 min 202 W/m 36,0 km/h (5 Bft) 95,74 %
05.04.2018 15:32 7,5 C 8,3 C 7,8 C 77 % 0 lf 1015,4 hPa 0,0 l/m 0 min 0 min 211 W/m 29,3 km/h (5 Bft) 97,87 %
05.04.2018 15:34 7,5 C 8,3 C 7,8 C 77 % 0 lf 1015,5 hPa 0,0 l/m 0 min 0 min 213 W/m 27,0 km/h (4 Bft) 93,62 %
05.04.2018 15:38 7,5 C 8,9 C 8,3 C 77 % 0 lf 1015,6 hPa 0,0 l/m 0 min 0 min 216 W/m 33,8 km/h (5 Bft) 98,94 %
05.04.2018 15:40 7,5 C 8,9 C 8,9 C 77 % 0 lf 1015,6 hPa 0,0 l/m 0 min 0 min 239 W/m 31,5 km/h (5 Bft) 97,87 %
05.04.2018 15:42 7,6 C 9,4 C 8,9 C 77 % 0 lf 1015,5 hPa 0,0 l/m 0 min 0 min 256 W/m 24,8 km/h (4 Bft) 97,87 %
05.04.2018 15:44 7,6 C 9,4 C 9,4 C 77 % 0 lf 1015,6 hPa 0,0 l/m 0 min 0 min 267 W/m 33,8 km/h (5 Bft) 95,74 %
05.04.2018 15:46 7,7 C 10,0 C 10,0 C 77 % 0 lf 1015,6 hPa 0,0 l/m 0 min 0 min 281 W/m 29,3 km/h (5 Bft) 97,87 %
05.04.2018 15:48 7,7 C 10,6 C 10,0 C 77 % 0 lf 1015,7 hPa 0,0 l/m 2 min 0 min 298 W/m 18,0 km/h (3 Bft) 97,87 %
05.04.2018 15:50 7,8 C 10,6 C 10,6 C 77 % 0 lf 1015,7 hPa 0,0 l/m 0 min 0 min 296 W/m 24,8 km/h (4 Bft) 95,65 %
05.04.2018 15:52 7,8 C 10,6 C 10,0 C 76 % 0 lf 1015,7 hPa 0,0 l/m 2 min 0 min 303 W/m 31,5 km/h (5 Bft) 95,74 %
05.04.2018 15:54 7,9 C 10,6 C 10,0 C 75 % 0 lf 1015,7 hPa 0,0 l/m 2 min 0 min 317 W/m 29,3 km/h (5 Bft) 97,87 %
05.04.2018 15:56 8,0 C 10,6 C 10,0 C 75 % 0 lf 1015,8 hPa 0,0 l/m 2 min 0 min 324 W/m 27,0 km/h (4 Bft) 100,00 %
05.04.2018 15:58 8,1 C 10,6 C 9,4 C 75 % 0 lf 1015,8 hPa 0,0 l/m 0 min 0 min 184 W/m 22,5 km/h (4 Bft) 97,87 %
05.04.2018 16:00 8,1 C 10,0 C 8,9 C 74 % 0 lf 1015,8 hPa 0,0 l/m 0 min 0 min 106 W/m 29,3 km/h (5 Bft) 95,74 %
05.04.2018 16:02 8,1 C 9,4 C 8,3 C 74 % 0 lf 1015,9 hPa 0,0 l/m 0 min 0 min 81 W/m 33,8 km/h (5 Bft) 93,48 %
05.04.2018 16:04 8,1 C 8,3 C 7,8 C 73 % 1 lf 1015,8 hPa 0,0 l/m 0 min 0 min 70 W/m 27,0 km/h (4 Bft) 100,00 %
05.04.2018 16:08 8,1 C 8,3 C 7,8 C 73 % 0 lf 1016,1 hPa 0,0 l/m 0 min 0 min 63 W/m 29,3 km/h (5 Bft) 98,94 %
05.04.2018 16:10 8,1 C 8,3 C 7,2 C 73 % 2 lf 1016,2 hPa 0,0 l/m 0 min 0 min 65 W/m 22,5 km/h (4 Bft) 97,87 %
05.04.2018 16:12 8,0 C 7,8 C 7,2 C 72 % 0 lf 1016,2 hPa 0,0 l/m 0 min 0 min 89 W/m 31,5 km/h (5 Bft) 97,83 %
05.04.2018 16:14 8,0 C 8,9 C 7,8 C 72 % 0 lf 1016,3 hPa 0,0 l/m 0 min 2 min 145 W/m 33,8 km/h (5 Bft) 97,87 %
05.04.2018 16:16 8,0 C 11,7 C 8,9 C 73 % 0 lf 1016,3 hPa 0,0 l/m 2 min 0 min 388 W/m 31,5 km/h (5 Bft) 95,74 %
05.04.2018 16:18 8,2 C 13,9 C 10,0 C 74 % 0 lf 1016,3 hPa 0,0 l/m 2 min 0 min 735 W/m 31,5 km/h (5 Bft) 97,87 %
05.04.2018 16:20 8,4 C 15,0 C 11,1 C 75 % 0 lf 1016,1 hPa 0,0 l/m 2 min 0 min 733 W/m 24,8 km/h (4 Bft) 100,00 %
05.04.2018 16:22 8,7 C 14,4 C 11,1 C 74 % 0 lf 1016,2 hPa 0,0 l/m 2 min 0 min 745 W/m 33,8 km/h (5 Bft) 93,62 %
05.04.2018 16:24 8,8 C 14,4 C 11,1 C 73 % 0 lf 1016,2 hPa 0,0 l/m 2 min 0 min 742 W/m 27,0 km/h (4 Bft) 97,87 %
05.04.2018 16:26 8,9 C 12,2 C 10,6 C 70 % 0 lf 1016,3 hPa 0,0 l/m 2 min 0 min 573 W/m 29,3 km/h (5 Bft) 95,65 %
05.04.2018 16:28 9,0 C 11,1 C 9,4 C 69 % 0 lf 1016,2 hPa 0,0 l/m 0 min 0 min 183 W/m 24,8 km/h (4 Bft) 97,87 %
05.04.2018 16:30 9,0 C 10,6 C 9,4 C 69 % 0 lf 1016,4 hPa 0,0 l/m 0 min 0 min 170 W/m 31,5 km/h (5 Bft) 97,87 %
05.04.2018 16:32 9,1 C 11,1 C 9,4 C 69 % 0 lf 1016,4 hPa 0,0 l/m 0 min 0 min 167 W/m 27,0 km/h (4 Bft) 93,62 %
05.04.2018 16:34 9,1 C 10,6 C 8,9 C 68 % 0 lf 1016,4 hPa 0,0 l/m 0 min 0 min 156 W/m 38,3 km/h (5 Bft) 97,87 %
05.04.2018 16:38 9,0 C 10,0 C 8,9 C 66 % 0 lf 1016,5 hPa 0,0 l/m 0 min 0 min 153 W/m 36,0 km/h (5 Bft) 97,85 %
05.04.2018 16:40 9,0 C 10,0 C 8,9 C 66 % 0 lf 1016,5 hPa 0,0 l/m 0 min 0 min 152 W/m 22,5 km/h (4 Bft) 97,87 %
05.04.2018 16:42 9,0 C 10,0 C 8,9 C 66 % 0 lf 1016,5 hPa 0,0 l/m 0 min 0 min 176 W/m 24,8 km/h (4 Bft) 97,87 %
05.04.2018 16:44 8,9 C 11,7 C 9,4 C 66 % 0 lf 1016,5 hPa 0,0 l/m 0 min 0 min 197 W/m 22,5 km/h (4 Bft) 95,74 %
05.04.2018 16:46 9,0 C 11,1 C 9,4 C 67 % 0 lf 1016,6 hPa 0,0 l/m 0 min 0 min 219 W/m 31,5 km/h (5 Bft) 97,87 %
05.04.2018 16:48 9,1 C 10,6 C 9,4 C 66 % 0 lf 1016,6 hPa 0,0 l/m 0 min 0 min 211 W/m 33,8 km/h (5 Bft) 97,83 %
05.04.2018 16:50 9,1 C 10,6 C 9,4 C 66 % 0 lf 1016,7 hPa 0,0 l/m 0 min 0 min 220 W/m 27,0 km/h (4 Bft) 97,87 %
05.04.2018 16:52 9,1 C 11,1 C 10,0 C 66 % 0 lf 1016,7 hPa 0,0 l/m 2 min 0 min 257 W/m 29,3 km/h (5 Bft) 97,87 %
05.04.2018 16:54 9,1 C 11,1 C 10,0 C 67 % 0 lf 1016,7 hPa 0,0 l/m 2 min 0 min 257 W/m 22,5 km/h (4 Bft) 97,87 %
05.04.2018 16:56 9,1 C 11,1 C 10,0 C 66 % 0 lf 1016,7 hPa 0,0 l/m 0 min 0 min 223 W/m 29,3 km/h (5 Bft) 95,74 %
05.04.2018 16:58 9,1 C 10,6 C 10,0 C 66 % 0 lf 1016,8 hPa 0,0 l/m 0 min 0 min 216 W/m 29,3 km/h (5 Bft) 100,00 %
05.04.2018 17:00 9,1 C 11,1 C 10,0 C 66 % 0 lf 1016,8 hPa 0,0 l/m 2 min 0 min 260 W/m 38,3 km/h (5 Bft) 97,83 %
05.04.2018 17:02 9,2 C 10,6 C 10,0 C 66 % 0 lf 1016,8 hPa 0,0 l/m 2 min 0 min 249 W/m 29,3 km/h (5 Bft) 93,62 %
05.04.2018 17:04 9,2 C 11,1 C 10,0 C 66 % 0 lf 1016,7 hPa 0,0 l/m 2 min 0 min 244 W/m 29,3 km/h (5 Bft) 100,00 %
05.04.2018 17:08 9,3 C 11,7 C 10,6 C 67 % 0 lf 1016,8 hPa 0,0 l/m 4 min 0 min 467 W/m 33,8 km/h (5 Bft) 98,94 %
05.04.2018 17:10 9,4 C 12,2 C 11,1 C 67 % 0 lf 1016,9 hPa 0,0 l/m 2 min 0 min 562 W/m 22,5 km/h (4 Bft) 97,87 %
05.04.2018 17:12 9,6 C 12,2 C 11,1 C 67 % 0 lf 1016,9 hPa 0,0 l/m 2 min 0 min 421 W/m 22,5 km/h (4 Bft) 97,83 %
05.04.2018 17:14 9,7 C 11,7 C 10,6 C 66 % 0 lf 1016,9 hPa 0,0 l/m 0 min 0 min 213 W/m 20,3 km/h (4 Bft) 95,74 %
05.04.2018 17:16 9,7 C 11,1 C 10,0 C 67 % 0 lf 1016,9 hPa 0,0 l/m 0 min 0 min 149 W/m 24,8 km/h (4 Bft) 97,87 %
05.04.2018 17:18 9,7 C 10,6 C 9,4 C 66 % 0 lf 1017,0 hPa 0,0 l/m 0 min 0 min 104 W/m 29,3 km/h (5 Bft) 97,87 %
05.04.2018 17:20 9,7 C 10,0 C 8,9 C 66 % 1 lf 1017,0 hPa 0,0 l/m 0 min 0 min 90 W/m 36,0 km/h (5 Bft) 97,87 %
05.04.2018 17:22 9,7 C 10,0 C 8,9 C 66 % 0 lf 1017,1 hPa 0,0 l/m 0 min 0 min 105 W/m 31,5 km/h (5 Bft) 95,65 %
05.04.2018 17:24 9,6 C 10,0 C 8,9 C 66 % 0 lf 1017,1 hPa 0,0 l/m 0 min 0 min 105 W/m 24,8 km/h (4 Bft) 93,62 %
05.04.2018 17:26 9,6 C 10,6 C 8,9 C 66 % 0 lf 1017,1 hPa 0,0 l/m 2 min 0 min 370 W/m 27,0 km/h (4 Bft) 97,87 %
05.04.2018 17:28 9,6 C 10,6 C 8,9 C 67 % 0 lf 1017,1 hPa 0,0 l/m 2 min 0 min 383 W/m 22,5 km/h (4 Bft) 97,87 %
05.04.2018 17:30 9,6 C 10,6 C 8,9 C 68 % 0 lf 1017,1 hPa 0,0 l/m 2 min 0 min 370 W/m 27,0 km/h (4 Bft) 95,74 %
05.04.2018 17:32 9,6 C 10,6 C 8,9 C 68 % 0 lf 1017,2 hPa 0,0 l/m 2 min 0 min 363 W/m 29,3 km/h (5 Bft) 95,74 %
05.04.2018 17:34 9,6 C 10,6 C 8,3 C 68 % 0 lf 1017,2 hPa 0,0 l/m 2 min 0 min 358 W/m 29,3 km/h (5 Bft) 97,83 %
05.04.2018 17:38 9,7 C 10,0 C 8,3 C 67 % 0 lf 1017,2 hPa 0,0 l/m 4 min 0 min 353 W/m 29,3 km/h (5 Bft) 97,87 %
05.04.2018 17:40 9,7 C 10,6 C 8,3 C 68 % 0 lf 1017,3 hPa 0,0 l/m 2 min 0 min 349 W/m 22,5 km/h (4 Bft) 95,74 %
05.04.2018 17:42 9,7 C 10,6 C 8,3 C 68 % 0 lf 1017,4 hPa 0,0 l/m 2 min 0 min 333 W/m 36,0 km/h (5 Bft) 97,87 %
05.04.2018 17:44 9,8 C 10,0 C 8,3 C 68 % 0 lf 1017,4 hPa 0,0 l/m 2 min 0 min 336 W/m 31,5 km/h (5 Bft) 95,74 %
05.04.2018 17:46 9,8 C 10,6 C 8,3 C 68 % 0 lf 1017,5 hPa 0,0 l/m 2 min 0 min 336 W/m 31,5 km/h (5 Bft) 97,83 %
05.04.2018 17:48 9,8 C 10,6 C 8,3 C 68 % 0 lf 1017,5 hPa 0,0 l/m 2 min 0 min 328 W/m 24,8 km/h (4 Bft) 97,87 %
05.04.2018 17:50 9,8 C 10,0 C 8,3 C 67 % 0 lf 1017,5 hPa 0,0 l/m 2 min 0 min 320 W/m 31,5 km/h (5 Bft) 95,74 %
05.04.2018 17:52 9,8 C 10,6 C 8,9 C 67 % 0 lf 1017,5 hPa 0,0 l/m 2 min 0 min 315 W/m 31,5 km/h (5 Bft) 97,87 %
05.04.2018 17:54 9,8 C 10,6 C 8,3 C 66 % 0 lf 1017,6 hPa 0,0 l/m 2 min 0 min 310 W/m 31,5 km/h (5 Bft) 95,74 %
05.04.2018 17:56 9,8 C 10,6 C 8,3 C 65 % 0 lf 1017,6 hPa 0,0 l/m 2 min 0 min 307 W/m 29,3 km/h (5 Bft) 95,74 %
05.04.2018 17:58 9,9 C 10,6 C 8,3 C 65 % 0 lf 1017,6 hPa 0,0 l/m 2 min 0 min 302 W/m 22,5 km/h (4 Bft) 95,92 %
05.04.2018 18:00 9,9 C 10,6 C 8,9 C 66 % 0 lf 1017,6 hPa 0,0 l/m 2 min 0 min 306 W/m 20,3 km/h (4 Bft) 93,62 %
05.04.2018 18:02 10,0 C 11,1 C 8,9 C 66 % 0 lf 1017,6 hPa 0,0 l/m 2 min 0 min 308 W/m 20,3 km/h (4 Bft) 93,62 %
05.04.2018 18:04 10,1 C 11,1 C 8,9 C 66 % 0 lf 1017,6 hPa 0,0 l/m 2 min 0 min 305 W/m 18,0 km/h (3 Bft) 95,74 %
05.04.2018 18:08 10,2 C 11,1 C 8,9 C 66 % 0 lf 1017,7 hPa 0,0 l/m 4 min 0 min 298 W/m 20,3 km/h (4 Bft) 92,47 %
05.04.2018 18:10 10,2 C 11,1 C 8,9 C 65 % 0 lf 1017,7 hPa 0,0 l/m 2 min 0 min 303 W/m 22,5 km/h (4 Bft) 93,88 %
05.04.2018 18:12 10,2 C 11,1 C 9,4 C 64 % 0 lf 1017,7 hPa 0,0 l/m 2 min 0 min 314 W/m 27,0 km/h (4 Bft) 97,14 %
05.04.2018 18:14 10,3 C 11,7 C 9,4 C 65 % 0 lf 1017,7 hPa 0,0 l/m 2 min 0 min 312 W/m 22,5 km/h (4 Bft) 95,74 %
05.04.2018 18:16 10,4 C 11,7 C 9,4 C 65 % 0 lf 1017,7 hPa 0,0 l/m 2 min 0 min 284 W/m 24,8 km/h (4 Bft) 95,74 %
05.04.2018 18:18 10,4 C 11,7 C 9,4 C 63 % 0 lf 1017,7 hPa 0,0 l/m 2 min 0 min 270 W/m 22,5 km/h (4 Bft) 95,65 %
05.04.2018 18:20 10,4 C 11,1 C 9,4 C 63 % 0 lf 1017,9 hPa 0,0 l/m 2 min 0 min 253 W/m 27,0 km/h (4 Bft) 93,22 %
05.04.2018 18:22 10,4 C 11,1 C 8,9 C 63 % 0 lf 1017,9 hPa 0,0 l/m 2 min 0 min 251 W/m 29,3 km/h (5 Bft) 94,29 %
05.04.2018 18:24 10,4 C 11,1 C 8,9 C 65 % 0 lf 1018,0 hPa 0,0 l/m 2 min 0 min 242 W/m 29,3 km/h (5 Bft) 95,74 %
05.04.2018 18:26 10,3 C 10,6 C 8,3 C 65 % 0 lf 1018,0 hPa 0,0 l/m 2 min 0 min 227 W/m 24,8 km/h (4 Bft) 93,62 %
05.04.2018 18:28 10,2 C 10,0 C 7,8 C 66 % 0 lf 1018,1 hPa 0,0 l/m 2 min 0 min 173 W/m 24,8 km/h (4 Bft) 95,65 %
05.04.2018 18:30 10,1 C 10,0 C 7,8 C 66 % 0 lf 1018,1 hPa 0,0 l/m 2 min 0 min 192 W/m 22,5 km/h (4 Bft) 93,62 %
05.04.2018 18:32 10,0 C 10,0 C 7,8 C 66 % 0 lf 1018,2 hPa 0,0 l/m 2 min 0 min 192 W/m 27,0 km/h (4 Bft) 95,74 %
05.04.2018 18:34 9,9 C 10,0 C 7,8 C 67 % 0 lf 1018,2 hPa 0,0 l/m 2 min 0 min 178 W/m 13,5 km/h (3 Bft) 95,74 %
05.04.2018 18:38 9,8 C 10,0 C 7,8 C 68 % 0 lf 1018,3 hPa 0,0 l/m 4 min 0 min 174 W/m 20,3 km/h (4 Bft) 94,68 %
05.04.2018 18:40 9,8 C 9,4 C 7,8 C 68 % 0 lf 1018,3 hPa 0,0 l/m 0 min 0 min 105 W/m 22,5 km/h (4 Bft) 93,48 %
05.04.2018 18:42 9,7 C 9,4 C 7,8 C 68 % 0 lf 1018,4 hPa 0,0 l/m 2 min 0 min 158 W/m 18,0 km/h (3 Bft) 91,49 %
05.04.2018 18:44 9,7 C 10,0 C 7,8 C 68 % 0 lf 1018,4 hPa 0,0 l/m 2 min 0 min 155 W/m 13,5 km/h (3 Bft) 93,62 %
05.04.2018 18:46 9,6 C 10,0 C 7,8 C 68 % 0 lf 1018,4 hPa 0,0 l/m 2 min 0 min 154 W/m 18,0 km/h (3 Bft) 95,74 %
05.04.2018 18:48 9,6 C 10,0 C 7,8 C 68 % 0 lf 1018,4 hPa 0,0 l/m 2 min 0 min 138 W/m 15,8 km/h (3 Bft) 95,74 %
05.04.2018 18:50 9,5 C 10,0 C 7,8 C 68 % 0 lf 1018,4 hPa 0,0 l/m 2 min 0 min 128 W/m 15,8 km/h (3 Bft) 97,87 %
05.04.2018 18:52 9,5 C 10,0 C 7,8 C 68 % 0 lf 1018,4 hPa 0,0 l/m 2 min 0 min 119 W/m 15,8 km/h (3 Bft) 95,65 %
05.04.2018 18:54 9,4 C 10,0 C 7,2 C 68 % 0 lf 1018,6 hPa 0,0 l/m 2 min 0 min 111 W/m 15,8 km/h (3 Bft) 93,62 %
05.04.2018 18:56 9,4 C 9,4 C 7,2 C 68 % 0 lf 1018,6 hPa 0,0 l/m 2 min 0 min 104 W/m 24,8 km/h (4 Bft) 95,74 %
05.04.2018 18:58 9,4 C 9,4 C 7,2 C 67 % 0 lf 1018,6 hPa 0,0 l/m 2 min 0 min 98 W/m 18,0 km/h (3 Bft) 95,74 %
05.04.2018 19:00 9,4 C 9,4 C 7,2 C 67 % 0 lf 1018,6 hPa 0,0 l/m 2 min 0 min 91 W/m 20,3 km/h (4 Bft) 100,00 %
05.04.2018 19:02 9,4 C 9,4 C 7,2 C 66 % 0 lf 1018,7 hPa 0,0 l/m 2 min 0 min 88 W/m 20,3 km/h (4 Bft) 97,87 %
05.04.2018 19:04 9,3 C 8,9 C 7,2 C 66 % 0 lf 1018,7 hPa 0,0 l/m 0 min 0 min 76 W/m 27,0 km/h (4 Bft) 95,65 %
05.04.2018 19:08 9,3 C 8,9 C 7,2 C 65 % 0 lf 1018,8 hPa 0,0 l/m 0 min 0 min 54 W/m 18,0 km/h (3 Bft) 96,81 %
05.04.2018 19:10 9,2 C 8,9 C 6,7 C 66 % 0 lf 1018,8 hPa 0,0 l/m 0 min 0 min 55 W/m 18,0 km/h (3 Bft) 95,74 %
05.04.2018 19:12 9,2 C 8,9 C 6,7 C 65 % 0 lf 1018,9 hPa 0,0 l/m 0 min 0 min 50 W/m 18,0 km/h (3 Bft) 97,87 %
05.04.2018 19:14 9,2 C 8,9 C 6,7 C 65 % 0 lf 1018,8 hPa 0,0 l/m 0 min 0 min 41 W/m 20,3 km/h (4 Bft) 97,87 %
05.04.2018 19:16 9,1 C 8,3 C 6,7 C 65 % 0 lf 1018,8 hPa 0,0 l/m 0 min 0 min 36 W/m 27,0 km/h (4 Bft) 97,83 %
05.04.2018 19:18 9,1 C 8,3 C 6,7 C 64 % 0 lf 1018,8 hPa 0,0 l/m 0 min 0 min 33 W/m 22,5 km/h (4 Bft) 95,74 %
05.04.2018 19:20 9,0 C 8,3 C 6,7 C 64 % 0 lf 1018,8 hPa 0,0 l/m 0 min 0 min 33 W/m 18,0 km/h (3 Bft) 95,74 %
05.04.2018 19:22 8,9 C 8,3 C 6,7 C 62 % 0 lf 1018,9 hPa 0,0 l/m 0 min 0 min 33 W/m 15,8 km/h (3 Bft) 97,87 %
05.04.2018 19:24 8,9 C 8,3 C 6,1 C 62 % 0 lf 1018,9 hPa 0,0 l/m 0 min 0 min 31 W/m 15,8 km/h (3 Bft) 97,87 %
05.04.2018 19:26 8,8 C 7,8 C 6,1 C 62 % 0 lf 1018,9 hPa 0,0 l/m 0 min 0 min 29 W/m 18,0 km/h (3 Bft) 100,00 %
05.04.2018 19:28 8,8 C 7,8 C 6,1 C 62 % 0 lf 1018,9 hPa 0,0 l/m 0 min 0 min 32 W/m 18,0 km/h (3 Bft) 95,65 %
05.04.2018 19:30 8,7 C 7,8 C 6,1 C 62 % 0 lf 1019,1 hPa 0,0 l/m 0 min 0 min 33 W/m 13,5 km/h (3 Bft) 97,87 %
05.04.2018 19:32 8,7 C 7,8 C 6,1 C 63 % 0 lf 1019,1 hPa 0,0 l/m 0 min 0 min 32 W/m 18,0 km/h (3 Bft) 97,87 %
05.04.2018 19:34 8,6 C 7,8 C 5,6 C 63 % 0 lf 1019,1 hPa 0,0 l/m 0 min 0 min 32 W/m 11,3 km/h (2 Bft) 97,87 %
05.04.2018 19:38 8,5 C 7,2 C 5,6 C 63 % 0 lf 1019,2 hPa 0,0 l/m 0 min 0 min 32 W/m 11,3 km/h (2 Bft) 97,85 %
05.04.2018 19:40 8,4 C 7,2 C 5,6 C 64 % 0 lf 1019,2 hPa 0,0 l/m 0 min 0 min 30 W/m 13,5 km/h (3 Bft) 97,87 %
05.04.2018 19:42 8,4 C 7,2 C 5,6 C 64 % 0 lf 1019,2 hPa 0,0 l/m 0 min 0 min 30 W/m 13,5 km/h (3 Bft) 97,87 %
05.04.2018 19:44 8,4 C 7,2 C 5,6 C 64 % 0 lf 1019,2 hPa 0,0 l/m 0 min 0 min 28 W/m 15,8 km/h (3 Bft) 95,74 %
05.04.2018 19:46 8,3 C 7,2 C 5,6 C 64 % 0 lf 1019,2 hPa 0,0 l/m 0 min 0 min 26 W/m 13,5 km/h (3 Bft) 97,87 %
05.04.2018 19:48 8,3 C 7,2 C 5,0 C 64 % 0 lf 1019,2 hPa 0,0 l/m 0 min 0 min 25 W/m 13,5 km/h (3 Bft) 100,00 %
05.04.2018 19:50 8,2 C 6,7 C 5,0 C 64 % 0 lf 1019,2 hPa 0,0 l/m 0 min 0 min 22 W/m 11,3 km/h (2 Bft) 97,87 %
05.04.2018 19:52 8,2 C 6,7 C 5,0 C 65 % 0 lf 1019,3 hPa 0,0 l/m 2 min 0 min 22 W/m 11,3 km/h (2 Bft) 93,48 %
05.04.2018 19:54 8,1 C 6,7 C 5,0 C 65 % 0 lf 1019,3 hPa 0,0 l/m 2 min 0 min 23 W/m 11,3 km/h (2 Bft) 93,62 %
05.04.2018 19:56 8,1 C 6,7 C 5,0 C 65 % 0 lf 1019,3 hPa 0,0 l/m 2 min 0 min 21 W/m 13,5 km/h (3 Bft) 93,62 %
05.04.2018 19:58 8,0 C 6,7 C 5,0 C 65 % 0 lf 1019,4 hPa 0,0 l/m 2 min 0 min 20 W/m 11,3 km/h (2 Bft) 95,74 %
05.04.2018 20:00 8,0 C 6,1 C 4,4 C 65 % 0 lf 1019,4 hPa 0,0 l/m 0 min 0 min 19 W/m 11,3 km/h (2 Bft) 97,87 %
05.04.2018 20:02 7,9 C 6,1 C 4,4 C 66 % 0 lf 1019,4 hPa 0,0 l/m 0 min 0 min 17 W/m 11,3 km/h (2 Bft) 97,83 %
05.04.2018 20:04 7,9 C 6,1 C 4,4 C 66 % 0 lf 1019,5 hPa 0,0 l/m 0 min 0 min 14 W/m 9,0 km/h (2 Bft) 97,87 %
05.04.2018 20:08 7,8 C 6,1 C 4,4 C 66 % 0 lf 1019,5 hPa 0,0 l/m 0 min 0 min 11 W/m 11,3 km/h (2 Bft) 96,81 %
05.04.2018 20:10 7,7 C 6,1 C 3,9 C 66 % 0 lf 1019,5 hPa 0,0 l/m 0 min 0 min 9 W/m 11,3 km/h (2 Bft) 97,87 %
05.04.2018 20:12 7,7 C 5,6 C 3,9 C 66 % 0 lf 1019,5 hPa 0,0 l/m 0 min 0 min 7 W/m 13,5 km/h (3 Bft) 91,49 %
05.04.2018 20:14 7,6 C 5,6 C 3,9 C 66 % 0 lf 1019,5 hPa 0,0 l/m 0 min 0 min 6 W/m 11,3 km/h (2 Bft) 97,83 %
05.04.2018 20:16 7,6 C 5,6 C 3,9 C 66 % 0 lf 1019,5 hPa 0,0 l/m 0 min 0 min 5 W/m 9,0 km/h (2 Bft) 97,87 %
05.04.2018 20:18 7,5 C 5,6 C 3,9 C 66 % 0 lf 1019,5 hPa 0,0 l/m 0 min 0 min 4 W/m 11,3 km/h (2 Bft) 97,87 %
05.04.2018 20:20 7,4 C 5,6 C 3,3 C 67 % 0 lf 1019,6 hPa 0,0 l/m 0 min 0 min 0 W/m 9,0 km/h (2 Bft) 97,87 %
05.04.2018 20:22 7,4 C 5,6 C 3,3 C 67 % 0 lf 1019,7 hPa 0,0 l/m 0 min 0 min 0 W/m 6,8 km/h (2 Bft) 97,87 %
05.04.2018 20:24 7,3 C 5,6 C 3,3 C 67 % 0 lf 1019,7 hPa 0,0 l/m 0 min 0 min 0 W/m 6,8 km/h (2 Bft) 95,74 %
05.04.2018 20:26 7,3 C 5,0 C 3,3 C 67 % 0 lf 1019,6 hPa 0,0 l/m 0 min 0 min 0 W/m 6,8 km/h (2 Bft) 95,65 %
05.04.2018 20:28 7,2 C 5,0 C 3,3 C 67 % 0 lf 1019,7 hPa 0,0 l/m 0 min 0 min 0 W/m 6,8 km/h (2 Bft) 95,74 %
05.04.2018 20:30 7,2 C 5,0 C 2,8 C 67 % 0 lf 1019,8 hPa 0,0 l/m 0 min 0 min 0 W/m 9,0 km/h (2 Bft) 95,74 %
05.04.2018 20:32 7,1 C 5,0 C 2,8 C 67 % 0 lf 1019,9 hPa 0,0 l/m 0 min 0 min 0 W/m 9,0 km/h (2 Bft) 97,87 %
05.04.2018 20:34 7,1 C 5,0 C 2,8 C 67 % 0 lf 1019,9 hPa 0,0 l/m 0 min 0 min 0 W/m 4,5 km/h (1 Bft) 97,87 %
05.04.2018 20:38 6,9 C 4,4 C 2,2 C 68 % 0 lf 1019,9 hPa 0,0 l/m 0 min 0 min 0 W/m 4,5 km/h (1 Bft) 97,85 %
05.04.2018 20:40 6,9 C 4,4 C 2,2 C 68 % 0 lf 1019,9 hPa 0,0 l/m 0 min 0 min 0 W/m 4,5 km/h (1 Bft) 100,00 %
05.04.2018 20:42 6,8 C 4,4 C 2,2 C 68 % 0 lf 1019,9 hPa 0,0 l/m 0 min 0 min 0 W/m 4,5 km/h (1 Bft) 100,00 %
05.04.2018 20:44 6,8 C 4,4 C 2,2 C 68 % 0 lf 1019,9 hPa 0,0 l/m 0 min 0 min 0 W/m 6,8 km/h (2 Bft) 100,00 %
05.04.2018 20:46 6,7 C 4,4 C 2,2 C 68 % 0 lf 1020,0 hPa 0,0 l/m 0 min 0 min 0 W/m 4,5 km/h (1 Bft) 100,00 %
05.04.2018 20:48 6,6 C 4,4 C 2,2 C 68 % 0 lf 1020,0 hPa 0,0 l/m 0 min 0 min 0 W/m 4,5 km/h (1 Bft) 97,87 %
05.04.2018 20:50 6,6 C 4,4 C 1,7 C 69 % 0 lf 1020,0 hPa 0,0 l/m 0 min 0 min 0 W/m 2,3 km/h (1 Bft) 97,83 %
05.04.2018 20:52 6,5 C 3,9 C 1,7 C 69 % 0 lf 1020,0 hPa 0,0 l/m 0 min 0 min 0 W/m 6,8 km/h (2 Bft) 100,00 %
05.04.2018 20:54 6,4 C 3,9 C 1,7 C 69 % 0 lf 1020,0 hPa 0,0 l/m 0 min 0 min 0 W/m 4,5 km/h (1 Bft) 95,74 %
05.04.2018 20:56 6,4 C 3,9 C 1,7 C 69 % 0 lf 1020,0 hPa 0,0 l/m 0 min 0 min 0 W/m 4,5 km/h (1 Bft) 97,87 %
05.04.2018 20:58 6,3 C 3,9 C 1,7 C 69 % 0 lf 1020,1 hPa 0,0 l/m 0 min 0 min 0 W/m 2,3 km/h (1 Bft) 95,74 %
05.04.2018 21:00 6,3 C 3,9 C 1,7 C 70 % 0 lf 1020,1 hPa 0,0 l/m 0 min 0 min 0 W/m 4,5 km/h (1 Bft) 93,62 %
05.04.2018 21:02 6,2 C 3,9 C 1,1 C 70 % 0 lf 1020,1 hPa 0,0 l/m 0 min 0 min 0 W/m 2,3 km/h (1 Bft) 95,74 %
05.04.2018 21:04 6,2 C 3,9 C 1,1 C 70 % 0 lf 1020,1 hPa 0,0 l/m 0 min 0 min 0 W/m 4,5 km/h (1 Bft) 93,62 %
05.04.2018 21:08 6,1 C 3,3 C 1,1 C 70 % 0 lf 1020,2 hPa 0,0 l/m 0 min 0 min 0 W/m 0,0 km/h (0 Bft) 96,81 %
05.04.2018 21:10 6,0 C 3,3 C 1,1 C 70 % 0 lf 1020,2 hPa 0,0 l/m 0 min 0 min 0 W/m 0,0 km/h (0 Bft) 97,87 %
05.04.2018 21:12 5,9 C 3,3 C 1,1 C 70 % 0 lf 1020,3 hPa 0,0 l/m 0 min 0 min 0 W/m 2,3 km/h (1 Bft) 93,48 %
05.04.2018 21:14 5,9 C 3,3 C 1,1 C 71 % 0 lf 1020,2 hPa 0,0 l/m 0 min 0 min 0 W/m 4,5 km/h (1 Bft) 95,74 %
05.04.2018 21:16 5,8 C 3,3 C 1,1 C 71 % 0 lf 1020,3 hPa 0,0 l/m 0 min 0 min 0 W/m 4,5 km/h (1 Bft) 97,87 %
05.04.2018 21:18 5,8 C 3,3 C 1,1 C 71 % 0 lf 1020,3 hPa 0,0 l/m 0 min 0 min 0 W/m 2,3 km/h (1 Bft) 95,74 %
05.04.2018 21:20 5,7 C 3,3 C 1,1 C 71 % 0 lf 1020,3 hPa 0,0 l/m 0 min 0 min 0 W/m 0,0 km/h (0 Bft) 95,74 %
05.04.2018 21:22 5,7 C 3,3 C 1,1 C 71 % 0 lf 1020,4 hPa 0,0 l/m 0 min 0 min 0 W/m 4,5 km/h (1 Bft) 95,74 %
05.04.2018 21:24 5,6 C 3,3 C 1,1 C 71 % 0 lf 1020,4 hPa 0,0 l/m 0 min 0 min 0 W/m 4,5 km/h (1 Bft) 95,65 %
05.04.2018 21:26 5,5 C 2,8 C 1,1 C 72 % 0 lf 1020,4 hPa 0,0 l/m 0 min 0 min 0 W/m 4,5 km/h (1 Bft) 97,87 %
05.04.2018 21:28 5,4 C 2,8 C 1,1 C 72 % 0 lf 1020,5 hPa 0,0 l/m 0 min 0 min 0 W/m 4,5 km/h (1 Bft) 95,74 %
05.04.2018 21:30 5,4 C 2,8 C 1,1 C 72 % 0 lf 1020,5 hPa 0,0 l/m 0 min 0 min 0 W/m 4,5 km/h (1 Bft) 93,62 %
05.04.2018 21:32 5,3 C 2,8 C 1,1 C 72 % 0 lf 1020,5 hPa 0,0 l/m 0 min 0 min 0 W/m 4,5 km/h (1 Bft) 95,74 %
05.04.2018 21:34 5,3 C 2,8 C 0,6 C 72 % 0 lf 1020,5 hPa 0,0 l/m 0 min 0 min 0 W/m 0,0 km/h (0 Bft) 93,62 %
05.04.2018 21:38 5,2 C 2,8 C 0,6 C 72 % 0 lf 1020,6 hPa 0,0 l/m 0 min 0 min 0 W/m 0,0 km/h (0 Bft) 93,55 %
05.04.2018 21:40 5,1 C 2,8 C 0,6 C 73 % 0 lf 1020,5 hPa 0,0 l/m 0 min 0 min 0 W/m 0,0 km/h (0 Bft) 93,62 %
05.04.2018 21:42 5,1 C 2,8 C 0,6 C 73 % 0 lf 1020,5 hPa 0,0 l/m 0 min 0 min 0 W/m 0,0 km/h (0 Bft) 91,49 %
05.04.2018 21:44 5,0 C 2,8 C 0,6 C 73 % 0 lf 1020,7 hPa 0,0 l/m 0 min 0 min 0 W/m 0,0 km/h (0 Bft) 93,62 %
05.04.2018 21:46 4,9 C 2,8 C 0,6 C 73 % 0 lf 1020,7 hPa 0,0 l/m 0 min 0 min 0 W/m 0,0 km/h (0 Bft) 93,62 %
05.04.2018 21:48 4,9 C 2,8 C 0,6 C 73 % 0 lf 1020,7 hPa 0,0 l/m 0 min 0 min 0 W/m 0,0 km/h (0 Bft) 93,48 %
05.04.2018 21:50 4,8 C 2,8 C 0,6 C 74 % 0 lf 1020,8 hPa 0,0 l/m 0 min 0 min 0 W/m 0,0 km/h (0 Bft) 97,87 %
05.04.2018 21:52 4,8 C 2,8 C 0,6 C 74 % 0 lf 1020,7 hPa 0,0 l/m 0 min 0 min 0 W/m 0,0 km/h (0 Bft) 91,49 %
05.04.2018 21:54 4,7 C 2,8 C 0,6 C 74 % 0 lf 1020,8 hPa 0,0 l/m 0 min 0 min 0 W/m 0,0 km/h (0 Bft) 95,74 %
05.04.2018 21:56 4,7 C 2,8 C 0,6 C 74 % 0 lf 1020,8 hPa 0,0 l/m 0 min 0 min 0 W/m 0,0 km/h (0 Bft) 91,49 %
05.04.2018 21:58 4,6 C 2,8 C 0,6 C 74 % 0 lf 1020,8 hPa 0,0 l/m 0 min 0 min 0 W/m 0,0 km/h (0 Bft) 91,30 %
05.04.2018 22:00 4,6 C 2,8 C 0,6 C 75 % 0 lf 1020,8 hPa 0,0 l/m 0 min 0 min 0 W/m 0,0 km/h (0 Bft) 95,74 %
05.04.2018 22:02 4,5 C 2,8 C 0,6 C 75 % 0 lf 1020,8 hPa 0,0 l/m 0 min 0 min 0 W/m 4,5 km/h (1 Bft) 91,49 %
05.04.2018 22:04 4,5 C 2,8 C 0,6 C 75 % 0 lf 1020,8 hPa 0,0 l/m 0 min 0 min 0 W/m 2,3 km/h (1 Bft) 95,74 %
05.04.2018 22:08 4,4 C 2,8 C 0,6 C 75 % 0 lf 1020,8 hPa 0,0 l/m 0 min 0 min 0 W/m 2,3 km/h (1 Bft) 97,87 %
05.04.2018 22:10 4,3 C 2,2 C 0,6 C 75 % 0 lf 1020,9 hPa 0,0 l/m 0 min 0 min 0 W/m 4,5 km/h (1 Bft) 95,65 %
05.04.2018 22:12 4,3 C 2,2 C 0,0 C 75 % 0 lf 1020,9 hPa 0,0 l/m 0 min 0 min 0 W/m 0,0 km/h (0 Bft) 95,74 %
05.04.2018 22:14 4,2 C 2,2 C 0,0 C 76 % 0 lf 1020,9 hPa 0,0 l/m 0 min 0 min 0 W/m 2,3 km/h (1 Bft) 93,62 %
05.04.2018 22:16 4,2 C 2,2 C 0,0 C 75 % 0 lf 1020,9 hPa 0,0 l/m 0 min 0 min 0 W/m 0,0 km/h (0 Bft) 95,74 %
05.04.2018 22:18 4,1 C 2,2 C 0,0 C 76 % 0 lf 1021,0 hPa 0,0 l/m 0 min 0 min 0 W/m 0,0 km/h (0 Bft) 97,87 %
05.04.2018 22:20 4,1 C 2,2 C 0,0 C 76 % 0 lf 1021,0 hPa 0,0 l/m 0 min 0 min 0 W/m 0,0 km/h (0 Bft) 97,87 %
05.04.2018 22:22 4,0 C 2,2 C 0,0 C 76 % 0 lf 1021,0 hPa 0,0 l/m 0 min 0 min 0 W/m 0,0 km/h (0 Bft) 97,83 %
05.04.2018 22:24 3,9 C 2,2 C 0,0 C 77 % 0 lf 1021,0 hPa 0,0 l/m 0 min 0 min 0 W/m 0,0 km/h (0 Bft) 97,87 %
05.04.2018 22:26 3,9 C 2,8 C 0,0 C 77 % 0 lf 1021,1 hPa 0,0 l/m 0 min 0 min 0 W/m 0,0 km/h (0 Bft) 100,00 %
05.04.2018 22:28 3,9 C 2,2 C 0,0 C 77 % 0 lf 1021,1 hPa 0,0 l/m 0 min 0 min 0 W/m 0,0 km/h (0 Bft) 91,49 %
05.04.2018 22:30 3,8 C 2,2 C 0,0 C 78 % 0 lf 1021,2 hPa 0,0 l/m 0 min 0 min 0 W/m 0,0 km/h (0 Bft) 97,87 %
05.04.2018 22:32 3,8 C 2,2 C 0,0 C 77 % 0 lf 1021,2 hPa 0,0 l/m 0 min 0 min 0 W/m 0,0 km/h (0 Bft) 97,87 %
05.04.2018 22:34 3,7 C 2,2 C 0,0 C 77 % 0 lf 1021,2 hPa 0,0 l/m 0 min 0 min 0 W/m 4,5 km/h (1 Bft) 97,83 %
05.04.2018 22:38 3,6 C 2,2 C 0,0 C 77 % 0 lf 1021,2 hPa 0,0 l/m 0 min 0 min 0 W/m 4,5 km/h (1 Bft) 97,87 %
05.04.2018 22:40 3,6 C 2,2 C 0,0 C 77 % 0 lf 1021,2 hPa 0,0 l/m 0 min 0 min 0 W/m 0,0 km/h (0 Bft) 97,87 %
05.04.2018 22:42 3,6 C 2,2 C 0,0 C 78 % 0 lf 1021,3 hPa 0,0 l/m 0 min 0 min 0 W/m 0,0 km/h (0 Bft) 95,74 %
05.04.2018 22:44 3,5 C 2,2 C 0,0 C 78 % 0 lf 1021,3 hPa 0,0 l/m 0 min 0 min 0 W/m 0,0 km/h (0 Bft) 97,87 %
05.04.2018 22:46 3,4 C 1,7 C 0,0 C 78 % 0 lf 1021,3 hPa 0,0 l/m 0 min 0 min 0 W/m 0,0 km/h (0 Bft) 95,65 %
05.04.2018 22:48 3,4 C 1,7 C 0,0 C 77 % 0 lf 1021,3 hPa 0,0 l/m 0 min 0 min 0 W/m 0,0 km/h (0 Bft) 97,87 %
05.04.2018 22:50 3,4 C 1,7 C 0,0 C 77 % 0 lf 1021,3 hPa 0,0 l/m 0 min 0 min 0 W/m 0,0 km/h (0 Bft) 97,87 %
05.04.2018 22:52 3,3 C 1,7 C 0,0 C 77 % 0 lf 1021,4 hPa 0,0 l/m 0 min 0 min 0 W/m 0,0 km/h (0 Bft) 95,74 %
05.04.2018 22:54 3,3 C 1,1 C -0,6 C 78 % 0 lf 1021,4 hPa 0,0 l/m 0 min 0 min 0 W/m 2,3 km/h (1 Bft) 95,74 %
05.04.2018 22:56 3,2 C 1,1 C -0,6 C 78 % 0 lf 1021,4 hPa 0,0 l/m 0 min 0 min 0 W/m 0,0 km/h (0 Bft) 97,87 %
05.04.2018 22:58 3,2 C 1,1 C -0,6 C 78 % 0 lf 1021,4 hPa 0,0 l/m 0 min 0 min 0 W/m 0,0 km/h (0 Bft) 97,83 %
05.04.2018 23:00 3,2 C 1,1 C -0,6 C 78 % 0 lf 1021,3 hPa 0,0 l/m 0 min 0 min 0 W/m 0,0 km/h (0 Bft) 93,62 %
05.04.2018 23:02 3,1 C 1,1 C -0,6 C 78 % 0 lf 1021,4 hPa 0,0 l/m 0 min 0 min 0 W/m 0,0 km/h (0 Bft) 95,74 %
05.04.2018 23:04 3,1 C 1,1 C -0,6 C 79 % 0 lf 1021,5 hPa 0,0 l/m 0 min 0 min 0 W/m 0,0 km/h (0 Bft) 97,87 %
05.04.2018 23:08 3,0 C 1,1 C -0,6 C 79 % 0 lf 1021,5 hPa 0,0 l/m 0 min 0 min 0 W/m 0,0 km/h (0 Bft) 97,87 %
05.04.2018 23:10 3,0 C 1,1 C -0,6 C 79 % 0 lf 1021,5 hPa 0,0 l/m 0 min 0 min 0 W/m 0,0 km/h (0 Bft) 100,00 %
05.04.2018 23:12 2,9 C 1,1 C -0,6 C 79 % 0 lf 1021,5 hPa 0,0 l/m 0 min 0 min 0 W/m 0,0 km/h (0 Bft) 91,49 %
05.04.2018 23:14 2,9 C 1,1 C -0,6 C 79 % 0 lf 1021,5 hPa 0,0 l/m 0 min 0 min 0 W/m 0,0 km/h (0 Bft) 95,74 %
05.04.2018 23:16 2,9 C 1,7 C -0,6 C 79 % 0 lf 1021,5 hPa 0,0 l/m 0 min 0 min 0 W/m 0,0 km/h (0 Bft) 100,00 %
05.04.2018 23:18 2,8 C 1,7 C -0,6 C 80 % 0 lf 1021,5 hPa 0,0 l/m 0 min 0 min 0 W/m 0,0 km/h (0 Bft) 100,00 %
05.04.2018 23:20 2,8 C 1,7 C -0,6 C 80 % 0 lf 1021,5 hPa 0,0 l/m 0 min 0 min 0 W/m 0,0 km/h (0 Bft) 100,00 %
05.04.2018 23:22 2,8 C 1,7 C -0,6 C 81 % 0 lf 1021,5 hPa 0,0 l/m 0 min 0 min 0 W/m 0,0 km/h (0 Bft) 97,87 %
05.04.2018 23:24 2,7 C 1,7 C -0,6 C 81 % 0 lf 1021,5 hPa 0,0 l/m 0 min 0 min 0 W/m 0,0 km/h (0 Bft) 97,87 %
05.04.2018 23:26 2,7 C 1,7 C -0,6 C 81 % 0 lf 1021,4 hPa 0,0 l/m 0 min 0 min 0 W/m 0,0 km/h (0 Bft) 97,87 %
05.04.2018 23:28 2,7 C 1,7 C -0,6 C 81 % 0 lf 1021,5 hPa 0,0 l/m 0 min 0 min 0 W/m 0,0 km/h (0 Bft) 100,00 %
05.04.2018 23:30 2,7 C 1,7 C -0,6 C 81 % 0 lf 1021,5 hPa 0,0 l/m 0 min 0 min 0 W/m 0,0 km/h (0 Bft) 97,87 %
05.04.2018 23:32 2,7 C 1,7 C -0,6 C 81 % 0 lf 1021,5 hPa 0,0 l/m 0 min 0 min 0 W/m 0,0 km/h (0 Bft) 100,00 %
05.04.2018 23:34 2,6 C 1,7 C -0,6 C 82 % 0 lf 1021,6 hPa 0,0 l/m 0 min 0 min 0 W/m 0,0 km/h (0 Bft) 100,00 %
05.04.2018 23:38 2,6 C 1,7 C -0,6 C 82 % 0 lf 1021,5 hPa 0,0 l/m 0 min 0 min 0 W/m 0,0 km/h (0 Bft) 97,87 %
05.04.2018 23:40 2,6 C 1,7 C -0,6 C 82 % 0 lf 1021,5 hPa 0,0 l/m 0 min 0 min 0 W/m 0,0 km/h (0 Bft) 97,87 %
05.04.2018 23:42 2,5 C 1,7 C -0,6 C 82 % 0 lf 1021,6 hPa 0,0 l/m 0 min 0 min 0 W/m 0,0 km/h (0 Bft) 97,87 %
05.04.2018 23:44 2,5 C 1,7 C -0,6 C 83 % 0 lf 1021,5 hPa 0,0 l/m 0 min 0 min 0 W/m 0,0 km/h (0 Bft) 97,83 %
05.04.2018 23:46 2,4 C 1,7 C -0,6 C 83 % 0 lf 1021,5 hPa 0,0 l/m 0 min 0 min 0 W/m 0,0 km/h (0 Bft) 97,87 %
05.04.2018 23:48 2,4 C 1,7 C -0,6 C 83 % 0 lf 1021,5 hPa 0,0 l/m 0 min 0 min 0 W/m 0,0 km/h (0 Bft) 97,87 %
05.04.2018 23:50 2,4 C 1,7 C -0,6 C 83 % 0 lf 1021,5 hPa 0,0 l/m 0 min 0 min 0 W/m 0,0 km/h (0 Bft) 95,74 %
05.04.2018 23:52 2,4 C 1,7 C -0,6 C 84 % 0 lf 1021,5 hPa 0,0 l/m 0 min 0 min 0 W/m 0,0 km/h (0 Bft) 95,74 %
05.04.2018 23:54 2,4 C 1,7 C -0,6 C 84 % 0 lf 1021,5 hPa 0,0 l/m 0 min 0 min 0 W/m 0,0 km/h (0 Bft) 95,74 %
05.04.2018 23:56 2,4 C 1,7 C -0,6 C 84 % 1 lf 1021,5 hPa 0,0 l/m 0 min 0 min 0 W/m 0,0 km/h (0 Bft) 95,65 %
05.04.2018 23:58 2,3 C 1,1 C -0,6 C 84 % 1 lf 1021,5 hPa 0,0 l/m 0 min 0 min 0 W/m 0,0 km/h (0 Bft) 93,62 %
_ Min-Zeit 23:58 22:54 22:54 19:22 00:26 00:00 - - - - 21:08 06:18
Minimum _ 2,3 C 1,1 C -0,6 C 62 % 0 lf 999,6 hPa - - - - 0,0 km/h (0 Bft) 86,96 %
_ Max-Zeit 00:00 12:42 12:42 11:32 00:00 23:34 00:00 12:08 00:38 12:14 09:24 00:30
Maximum _ 10,7 C 15,6 C 12,8 C 91 % 15 lf 1021,6 hPa 0,0 l/m 4 min 4 min 842 W/m 58,6 km/h
W-SW (7 Bft)
100,00 %
Durchschnitt _ 8,3 C 8,3 C 6,7 C 80 % 2 lf 1010,1 hPa #0,0 l/m #2:56 h #4:36 h 159 W/m 24,9 km/h (4 Bft) 96,50 %
© 2018 W. Hausmann